GFSSW_500_spd_000.txt.gz
Wind_Speed
22 18 24 25 25 26 29 26 22 19 17 17 21 22 20 20 21 21 19 15 13 13 13 16 16 17 14 10 4 3 6 9 8 6 5 3 2 6 10 8 9 6 3 4 7
26 26 26 29 31 33 32 27 26 27 28 29 28 26 24 23 24 27 25 19 17 16 14 15 14 11 11 9 7 6 10 10 5 10 10 14 13 7 11 12 14 14 13 12 11
25 28 34 35 34 35 31 27 27 29 28 26 25 25 24 24 24 23 24 26 25 21 20 18 16 16 20 21 10 16 19 16 14 13 15 15 13 13 12 10 10 8 8 8 9
32 36 37 37 36 34 31 28 28 27 24 24 22 21 22 22 24 20 22 22 23 22 22 19 20 17 19 18 17 15 12 13 10 9 10 11 10 9 8 9 9 8 8 9 8
39 39 39 37 34 33 31 28 26 22 21 19 19 19 17 20 19 20 20 17 19 17 17 16 17 16 17 15 14 11 11 10 9 9 8 7 7 9 10 9 11 13 13 12 13
40 40 38 36 34 32 29 26 23 20 18 17 17 15 13 16 13 14 16 15 12 12 12 16 14 13 14 14 14 12 9 7 5 4 5 5 6 6 9 11 9 11 14 16 16
39 37 36 35 34 31 29 26 24 20 16 15 13 11 13 15 14 13 13 10 12 10 10 11 13 10 9 10 11 12 7 5 4 2 1 4 4 3 4 7 10 13 13 15 16
37 36 36 34 33 30 27 24 22 21 18 16 13 10 9 10 10 9 7 7 8 7 8 7 8 9 7 5 5 4 4 3 4 2 3 5 9 8 5 5 10 10 9 10 13
37 35 34 32 30 29 26 24 22 20 17 14 13 11 7 7 6 5 5 6 6 6 5 5 7 6 7 6 2 0 4 7 5 4 3 3 4 7 10 13 14 13 9 9 9
34 32 29 26 24 23 21 18 18 16 15 14 11 11 10 8 7 4 5 6 7 8 10 9 3 3 4 5 7 8 9 10 10 7 9 6 8 9 11 13 14 16 15 15 16
30 26 24 23 19 15 13 13 9 10 9 9 7 7 9 9 8 7 5 7 5 6 6 6 4 4 5 10 9 9 11 11 13 12 10 13 14 11 14 15 15 16 18 19 22
28 24 21 16 13 10 8 7 4 3 2 2 4 6 8 11 11 9 6 6 4 5 4 6 8 10 10 9 11 9 11 13 16 17 13 14 16 17 16 14 19 23 25 26 27
27 24 20 17 14 12 9 8 6 7 6 5 6 8 10 12 14 9 7 5 6 7 6 7 8 10 10 10 12 14 13 14 13 14 21 19 19 19 18 17 19 20 20 23 24
25 23 21 18 16 14 13 13 12 11 11 10 11 11 11 12 14 9 7 7 8 9 8 9 10 12 15 13 12 14 16 16 14 13 17 19 19 20 20 19 23 26 23 24 26
25 23 22 20 18 18 18 17 16 15 15 15 14 14 14 13 11 10 9 11 12 11 12 12 12 15 18 17 14 13 15 16 16 18 17 19 18 19 24 27 28 32 33 33 34
25 24 22 22 22 21 20 19 17 18 18 18 17 16 15 14 12 11 12 12 14 16 17 15 14 16 19 21 17 15 13 17 19 20 20 23 23 25 31 32 34 35 38 42 37
20 18 18 18 19 19 18 18 18 18 17 16 17 16 14 12 15 14 15 18 19 18 17 18 16 18 18 20 18 14 14 18 22 21 23 25 22 30 32 34 36 35 42 39 38
16 14 12 10 9 11 13 13 14 12 11 13 13 14 14 15 18 21 20 19 19 19 19 19 17 17 18 16 14 16 17 18 23 25 22 22 22 27 31 33 33 38 40 43 44
16 14 11 10 9 8 8 10 10 11 13 13 15 17 18 22 23 19 16 17 18 16 14 14 17 16 17 14 15 18 20 24 27 30 29 23 16 26 24 26 34 35 42 45 44
16 15 11 9 10 8 7 8 10 11 12 11 14 14 10 12 10 11 11 13 10 10 11 10 12 14 15 16 18 22 24 31 32 32 33 32 22 26 24 31 29 42 46 45 47
14 14 13 10 9 8 7 8 7 8 8 9 11 12 10 10 10 9 9 11 10 9 10 10 12 18 20 21 24 24 26 30 34 33 35 40 32 28 32 38 42 46 45 48 45
14 14 14 13 11 10 7 9 7 7 7 8 9 8 9 10 12 13 11 13 13 14 14 15 17 21 24 26 27 24 24 29 37 38 36 43 43 35 39 40 45 44 45 45 48
13 14 14 13 11 10 9 8 9 10 9 10 11 12 13 15 17 17 17 17 17 20 22 22 22 21 28 31 32 26 23 31 38 41 42 47 46 39 40 44 45 47 46 49 50
14 14 14 12 11 9 8 7 8 9 10 12 13 13 16 17 18 20 21 20 22 23 23 25 25 26 26 31 36 29 25 31 39 42 47 44 50 41 48 46 48 49 50 48 48
13 13 13 13 10 10 9 9 7 6 8 9 10 12 15 17 18 20 23 25 25 25 26 27 27 27 26 31 36 33 35 37 39 36 41 37 39 41 45 47 48 46 50 55 53
15 13 14 11 12 13 12 10 9 10 11 14 15 17 18 20 21 22 23 24 25 27 29 31 32 37 30 37 41 36 35 37 37 36 40 42 44 44 44 45 49 48 54 53 54
19 17 16 14 14 15 14 13 13 13 15 17 20 24 24 23 23 24 27 28 29 29 29 33 38 41 41 38 40 30 32 35 37 37 42 43 41 39 42 49 50 52 53 52 51

GFSSW_500_spd_003.txt.gz
Wind_Speed
21 16 16 17 20 20 22 23 23 19 13 12 15 15 14 12 12 11 9 8 7 8 7 7 5 4 8 9 7 4 1 9 12 9 5 0 3 5 4 5 4 2 3 11 13
21 19 17 19 23 26 29 27 26 23 24 23 21 22 22 21 19 17 16 14 11 11 12 12 12 12 10 10 6 6 15 16 14 14 15 15 13 12 12 11 11 10 8 8 10
20 17 22 25 29 33 32 31 31 32 29 27 25 23 22 23 23 22 22 18 13 11 12 12 12 12 16 17 16 17 17 17 15 14 14 13 12 10 9 10 10 9 11 11 12
22 22 24 31 35 36 34 34 33 31 28 26 24 22 22 21 22 20 21 20 21 20 20 20 18 18 19 19 16 17 16 15 14 12 11 10 9 8 8 6 4 5 6 6 8
22 26 33 36 37 36 34 32 29 27 25 22 21 21 20 18 16 17 17 16 18 19 16 14 14 14 15 16 14 13 14 11 10 8 8 7 6 5 6 9 11 10 8 8 10
30 33 36 37 37 34 31 27 23 22 20 18 17 16 15 17 13 13 13 14 13 12 10 11 10 11 10 10 11 12 11 10 7 5 5 3 4 6 8 10 12 13 12 10 9
37 38 39 38 35 31 28 23 19 18 16 14 13 12 12 14 12 12 12 12 12 10 8 5 7 8 8 8 8 6 7 6 5 5 5 1 3 0 3 7 8 12 14 14 13
39 39 38 35 31 29 27 24 21 16 15 14 12 9 7 7 9 9 10 9 7 8 7 4 4 7 7 3 6 4 3 2 1 2 3 5 3 4 5 4 7 10 13 13 13
35 34 34 32 30 28 26 23 20 19 17 15 13 11 7 5 5 5 5 5 5 6 6 6 6 5 6 6 2 2 2 5 2 3 4 6 6 7 6 8 10 12 14 13 13
34 34 32 31 29 27 25 23 21 19 17 15 13 11 8 7 3 3 3 4 4 4 5 5 6 7 8 7 3 4 7 7 5 6 6 4 5 7 10 13 14 15 17 17 18
35 34 31 29 27 24 23 21 18 16 15 12 10 8 7 7 5 2 3 5 3 2 3 4 4 3 4 6 5 5 7 9 11 8 10 10 10 12 13 16 17 18 20 21 22
33 31 29 25 21 19 18 12 11 8 6 5 4 2 4 5 4 3 2 4 4 3 1 4 5 5 5 7 8 7 8 9 13 14 10 12 15 14 16 17 21 23 23 21 23
28 25 23 21 19 16 13 11 9 8 5 3 3 4 6 6 7 5 3 3 4 4 5 7 8 8 9 9 11 9 10 11 10 15 12 11 14 17 19 19 21 22 25 28 27
26 22 22 20 17 15 14 11 9 9 10 9 9 9 8 9 10 6 4 4 4 5 7 10 10 12 12 11 11 13 14 13 12 12 12 13 15 20 20 21 23 26 27 28 28
28 25 24 22 19 18 16 16 15 14 16 15 15 13 12 12 10 9 7 9 10 12 12 12 14 15 17 17 13 14 16 15 13 14 15 15 20 24 24 26 27 27 29 30 27
28 27 25 23 21 21 20 20 19 19 21 20 17 18 17 14 13 11 10 12 14 15 15 15 17 18 21 22 18 16 16 14 14 16 19 20 23 26 28 30 30 32 34 33 32
28 27 26 25 24 23 22 22 22 23 21 20 19 18 17 16 12 10 13 16 19 20 19 18 18 20 23 24 23 21 16 16 18 18 21 24 27 29 31 33 31 33 35 37 39
29 29 27 25 24 22 20 19 19 18 19 19 18 15 13 12 13 14 17 20 19 19 20 20 19 20 21 20 21 18 15 17 21 23 23 27 29 27 32 38 38 40 40 41 44
29 26 23 20 17 13 11 11 11 14 14 14 14 14 14 18 17 19 16 13 14 16 16 15 14 15 16 17 18 18 19 22 26 29 29 25 19 24 34 38 43 43 47 49 48
25 23 19 15 13 12 10 9 8 8 10 12 13 11 13 12 6 7 9 9 9 11 10 10 12 13 13 15 18 20 25 28 30 33 34 31 23 26 32 41 40 46 49 46 45
23 22 18 13 12 12 10 8 6 6 7 8 8 7 9 10 7 7 8 9 9 10 10 11 14 17 17 18 21 23 27 31 33 34 36 41 33 34 39 43 43 41 39 40 42
19 19 17 16 13 11 9 8 8 6 6 6 5 7 8 9 10 11 13 13 15 15 14 15 18 20 22 22 21 25 28 32 36 36 35 41 41 37 43 42 37 38 41 43 46
16 16 17 17 14 11 10 9 7 7 8 6 6 7 9 12 14 15 17 19 19 21 20 20 21 23 25 25 22 23 28 34 38 40 40 42 38 38 39 41 42 44 45 45 45
16 15 14 14 12 10 8 7 8 8 7 6 6 8 10 12 14 17 18 19 20 21 22 23 23 24 26 29 25 22 27 35 39 40 43 34 39 37 41 42 42 41 44 50 52
14 14 14 13 11 9 9 9 9 7 5 3 5 8 11 15 17 17 18 19 21 23 25 25 24 25 27 30 33 28 31 32 35 33 38 34 35 39 42 41 43 46 52 55 54
15 14 14 14 13 12 11 10 9 9 8 7 8 11 16 19 22 24 24 24 24 26 29 29 31 33 28 37 40 31 30 37 35 32 38 41 44 45 43 45 46 48 50 53 57
19 17 17 17 16 15 14 14 13 13 12 13 16 20 23 23 22 20 24 28 31 32 32 33 39 43 39 36 38 26 31 36 37 37 41 45 44 43 41 44 47 47 52 52 54

GFSSW_500_spd_006.txt.gz
Wind_Speed
17 12 16 13 15 16 16 19 20 19 17 15 10 11 9 9 9 6 3 4 6 6 8 8 9 9 11 12 11 6 2 5 9 9 4 1 3 7 11 15 16 14 13 12 12
15 17 14 14 16 19 19 20 19 19 18 18 16 13 11 11 13 15 15 14 15 16 17 16 14 12 12 11 9 8 7 9 11 12 13 15 15 14 12 11 10 10 10 10 8
17 17 15 15 17 16 17 21 23 26 25 23 21 21 20 21 21 19 18 16 15 16 17 15 13 15 16 17 17 17 16 18 17 15 15 14 13 10 7 7 5 6 6 6 6
14 15 16 16 15 17 26 28 29 29 28 25 24 22 23 24 24 23 22 20 16 14 19 16 17 19 19 19 17 16 16 14 14 13 12 11 9 9 5 4 5 7 8 9 8
16 16 14 15 22 31 33 33 32 29 27 25 22 21 20 20 18 20 19 19 17 16 16 15 15 17 18 17 16 14 15 13 12 9 7 9 6 4 5 6 7 7 8 9 10
14 14 17 27 35 36 35 32 29 26 24 22 20 18 19 19 17 16 15 15 14 13 13 11 12 11 9 7 7 7 9 7 7 7 6 5 4 6 7 7 7 10 10 9 11
17 25 33 37 37 34 30 27 23 22 19 17 15 15 15 17 16 14 15 13 13 12 11 10 7 6 8 7 6 6 6 4 3 5 5 5 6 5 4 5 7 9 11 12 13
31 35 37 37 34 30 27 24 20 17 16 16 15 12 11 12 11 12 12 12 11 9 8 7 6 6 6 4 3 1 2 2 2 4 5 6 3 2 4 7 8 9 11 12 12
36 38 37 34 31 29 27 24 21 19 17 15 13 11 10 9 9 9 8 8 9 6 6 7 7 6 6 6 1 2 1 1 5 4 3 6 8 8 9 9 10 11 12 13 16
38 37 33 30 28 27 25 23 21 19 17 15 13 11 8 7 7 6 6 6 5 3 3 5 6 6 6 5 2 3 2 3 3 4 4 3 4 8 9 12 16 17 17 19 21
36 34 32 30 28 26 23 21 19 18 15 14 13 10 8 7 5 3 2 2 2 2 2 1 3 2 4 5 5 5 6 4 4 3 6 6 9 11 14 17 18 18 22 25 25
33 31 29 27 26 24 22 18 16 14 12 10 7 6 4 3 3 2 2 2 1 3 5 3 1 2 3 5 6 7 9 8 10 8 5 9 12 15 17 19 21 22 24 25 26
31 29 27 25 24 22 18 15 13 8 5 3 3 2 2 2 4 5 3 3 3 5 6 6 7 7 7 8 10 10 9 10 11 14 11 12 15 16 17 18 20 23 25 26 25
30 28 25 23 20 18 16 13 12 11 8 6 7 8 7 5 7 4 4 5 5 5 7 9 11 11 12 12 12 14 15 14 15 14 13 16 19 19 21 24 24 27 29 29 29
27 26 24 21 19 18 16 15 14 13 13 13 14 12 12 11 11 10 8 8 9 8 11 12 14 17 17 16 15 17 18 18 17 16 15 16 20 22 25 27 29 32 33 32 32
26 23 23 21 19 18 18 17 17 18 20 18 17 16 15 15 14 13 13 13 13 13 14 16 17 19 21 20 19 19 20 19 17 17 17 20 22 24 28 32 35 35 35 34 34
29 26 24 22 23 22 21 20 21 23 22 21 20 19 16 15 14 14 12 14 16 18 19 20 19 20 21 23 21 21 20 18 17 18 20 23 26 29 32 34 34 35 35 37 36
30 28 26 26 24 23 23 22 23 23 22 22 21 19 15 14 12 12 14 17 20 20 19 18 19 20 20 19 19 17 15 17 20 21 23 28 31 31 31 35 37 39 40 41 41
32 29 27 26 25 25 23 21 19 19 19 19 17 15 13 13 14 16 17 14 12 14 14 13 14 15 15 15 16 17 17 19 23 26 27 28 28 32 33 36 38 40 42 43 43
31 29 29 26 23 20 17 14 12 10 11 12 13 12 12 9 7 7 7 9 11 12 12 12 12 11 12 15 17 19 22 25 28 31 32 31 21 28 36 38 35 38 40 41 42
31 28 25 21 18 16 15 11 7 6 6 6 6 7 8 8 7 7 8 11 13 11 13 16 16 15 17 19 22 24 26 28 30 31 32 36 29 31 34 35 34 34 36 40 43
26 24 23 21 18 16 12 8 5 5 4 4 5 4 5 6 7 10 13 15 15 16 17 18 20 21 21 22 24 24 26 30 33 34 34 35 32 34 38 35 35 38 41 44 44
25 23 23 22 18 14 11 9 7 6 6 6 6 6 6 7 9 12 14 15 18 19 19 20 20 22 22 24 26 27 27 30 36 38 38 38 36 35 38 41 42 46 48 47 47
21 20 20 19 17 12 10 9 8 8 7 6 6 6 5 7 11 14 16 17 18 20 21 22 23 25 27 27 27 27 29 35 40 42 44 36 40 32 38 40 44 44 45 48 50
20 20 19 17 15 12 10 10 9 8 8 7 5 5 5 10 14 16 19 21 21 23 25 26 27 31 31 32 32 28 32 36 41 41 42 40 40 40 43 46 48 46 49 53 59
19 20 19 17 14 12 11 11 10 9 8 8 8 8 10 14 16 18 21 22 25 29 31 31 34 35 34 39 40 33 34 39 39 37 38 42 43 44 45 47 47 47 55 56 59
19 18 18 18 16 15 15 14 13 11 11 11 13 15 16 19 21 22 24 29 31 34 37 41 44 44 40 38 40 30 30 37 39 38 40 43 45 46 46 48 50 51 55 58 62

GFSSW_500_spd_009.txt.gz
Wind_Speed
15 15 17 18 17 18 20 21 17 16 18 20 18 17 14 13 11 10 9 8 8 8 13 15 16 16 17 16 11 9 6 2 5 6 2 6 8 14 17 15 12 10 8 8 8
11 11 11 13 14 13 13 15 15 13 15 16 15 11 10 11 13 12 14 16 18 21 20 17 17 17 14 12 9 9 8 10 5 6 13 17 14 10 11 11 10 9 8 6 5
10 15 15 11 12 13 13 10 11 13 17 17 16 17 19 18 19 20 20 21 21 20 20 16 16 13 13 14 14 15 16 15 16 16 16 14 13 11 10 10 8 6 4 2 4
12 16 13 10 11 10 12 11 19 24 24 26 25 25 23 23 21 21 21 21 19 18 16 16 14 17 20 18 19 20 18 17 16 15 14 11 9 8 6 6 5 5 3 2 3
12 15 12 8 11 12 18 26 29 32 32 31 30 28 26 25 22 21 22 21 20 17 15 16 18 18 16 16 15 15 14 13 11 10 9 7 5 2 3 5 5 4 2 4 6
13 9 9 11 15 27 33 36 36 34 31 27 24 24 25 26 23 22 20 19 18 15 13 13 12 11 9 10 12 12 12 10 9 9 7 6 4 3 2 2 3 5 6 6 6
12 11 12 24 36 39 38 36 32 28 26 24 24 23 23 24 21 21 19 18 17 16 13 12 11 10 9 9 10 9 8 9 10 8 5 4 4 1 5 8 7 8 10 11 10
13 21 32 40 40 38 34 31 27 24 23 23 21 20 20 20 18 17 17 16 14 13 12 10 10 8 8 6 6 4 3 2 1 4 3 0 1 4 7 8 9 10 11 12 12
27 34 41 39 36 33 31 29 26 25 23 21 20 19 18 16 15 14 13 13 11 12 10 9 8 7 6 5 4 2 1 2 2 4 5 3 4 4 6 7 9 12 15 17 16
35 39 39 37 34 31 30 28 26 25 22 20 17 16 15 13 12 10 10 9 8 7 7 6 7 7 6 5 2 1 3 4 4 4 4 4 6 7 9 10 12 14 16 18 18
39 38 36 32 31 29 28 25 23 22 20 17 16 13 11 11 9 7 6 6 5 3 2 2 2 2 3 3 1 2 3 4 4 5 8 9 10 11 14 14 14 16 17 18 20
35 33 32 32 31 29 26 24 21 19 17 14 12 9 8 8 6 3 2 3 4 4 2 2 1 1 2 3 4 5 6 8 8 7 9 11 12 13 14 15 17 19 20 23 26
34 33 32 31 28 25 23 21 18 14 11 8 5 3 2 2 2 3 2 3 4 5 5 4 5 6 7 8 9 9 9 10 11 12 11 13 14 15 16 18 20 22 24 26 28
34 32 30 27 25 22 18 16 13 10 7 4 3 2 2 3 4 4 4 4 6 6 6 6 8 10 10 11 13 14 14 13 13 15 15 17 16 16 18 20 20 23 26 28 29
32 29 27 25 22 18 14 13 11 9 9 8 7 7 9 10 9 9 8 9 9 9 10 11 12 13 14 15 16 18 17 17 16 17 18 18 19 20 22 23 24 27 29 30 28
29 27 24 22 20 17 14 13 13 13 14 11 11 12 13 13 13 13 11 12 13 13 14 15 16 17 17 17 17 19 20 21 20 18 19 19 22 22 24 26 30 30 29 29 30
28 25 23 21 19 17 15 15 17 19 17 17 17 16 15 14 14 14 15 13 13 15 17 19 20 19 19 19 19 19 18 20 20 19 19 20 24 24 28 30 31 31 31 32 34
28 25 23 22 20 17 17 18 20 21 21 21 19 18 16 16 13 12 12 13 15 17 17 15 14 14 15 17 16 16 16 16 18 19 20 23 28 27 28 29 31 33 35 38 39
29 26 24 22 20 19 20 20 20 20 18 17 17 16 13 11 11 11 12 13 9 9 10 10 10 11 11 12 13 14 15 17 20 22 23 24 27 27 28 31 33 36 39 39 42
33 30 28 24 22 21 21 21 17 12 10 10 10 10 9 9 8 5 7 8 8 9 10 10 11 12 13 14 16 18 20 22 24 26 27 24 22 27 30 33 35 34 37 38 38
33 31 28 25 23 21 19 14 10 8 4 6 6 6 5 6 6 6 7 8 10 11 12 14 15 16 17 18 19 21 23 25 26 28 31 33 20 31 32 34 35 35 35 38 40
34 30 28 25 21 18 15 12 10 7 4 3 4 3 2 2 3 5 8 10 11 13 14 15 16 18 19 20 22 23 25 28 30 32 33 36 31 32 37 38 37 37 41 43 47
33 30 26 22 18 16 13 14 12 9 8 7 5 4 3 2 3 5 7 10 12 14 15 17 17 20 22 23 24 26 28 29 32 36 35 37 36 33 38 39 40 43 45 48 50
30 26 22 20 19 17 15 14 12 11 9 7 6 4 2 1 3 7 10 11 12 14 17 20 22 24 26 28 29 31 35 37 40 42 45 37 40 30 38 40 42 43 47 49 51
26 24 23 20 20 19 16 14 11 10 9 7 5 4 3 3 6 10 13 16 19 22 24 27 27 29 31 33 34 32 35 39 42 42 43 39 39 40 41 43 44 44 48 51 54
25 24 22 20 20 19 17 14 12 11 10 8 6 6 7 9 11 15 18 19 22 25 31 35 37 39 37 39 38 30 32 36 40 40 40 41 41 43 45 47 48 50 53 54 57
23 23 22 20 20 20 19 16 14 13 12 11 11 11 12 14 17 19 21 23 24 30 35 40 43 45 42 41 40 32 32 36 38 37 40 42 43 45 46 49 50 52 56 60 64

GFSSW_500_spd_012.txt.gz
Wind_Speed
14 14 16 18 15 17 22 24 23 23 20 20 19 20 21 17 14 13 14 13 13 11 9 14 16 15 14 13 12 14 7 5 6 7 8 9 10 16 14 14 12 10 9 9 8
13 17 18 21 20 17 18 20 20 17 17 16 17 16 14 14 13 13 15 13 14 18 21 21 20 18 15 13 10 12 10 11 10 11 13 18 18 13 13 13 11 8 7 5 4
13 12 14 17 16 16 15 16 17 15 14 11 14 16 19 19 17 17 18 21 25 23 23 20 19 17 16 12 12 15 15 15 15 18 18 15 14 12 10 9 8 7 3 1 1
13 16 17 17 17 15 14 14 15 14 16 20 24 25 24 23 22 24 26 26 24 21 19 20 17 16 15 14 16 18 19 16 16 14 12 10 8 8 6 6 6 5 4 1 3
18 19 19 14 18 16 15 15 17 22 24 27 27 26 24 24 24 23 23 21 19 16 16 17 16 16 14 15 16 14 13 13 12 11 8 7 7 7 7 6 3 2 3 4 4
19 19 17 17 15 15 20 26 29 34 37 35 32 30 30 29 26 25 24 23 22 21 19 18 17 14 14 14 13 13 14 12 12 13 11 8 8 7 7 6 4 4 3 5 6
14 14 14 16 21 29 34 38 40 37 35 36 33 32 31 28 25 23 22 20 19 18 16 14 13 12 13 12 12 10 9 7 9 9 8 9 7 6 7 5 2 6 7 8 10
14 14 21 30 36 41 40 37 36 36 35 33 31 30 29 26 24 22 21 19 18 18 16 14 12 11 9 8 6 6 6 8 10 10 7 5 8 5 5 7 6 7 10 11 11
20 29 36 42 42 40 38 36 35 34 31 29 28 26 24 22 21 19 17 16 15 14 13 13 11 8 6 6 5 5 3 4 4 3 4 5 8 6 10 8 8 9 10 10 13
35 40 42 43 40 37 35 34 32 29 28 26 24 22 20 18 18 16 15 15 14 12 11 10 9 8 6 7 7 6 5 4 5 6 6 9 8 8 8 9 11 13 11 13 14
42 41 41 39 36 34 33 31 30 28 25 22 21 18 17 15 13 12 11 10 10 11 10 9 8 8 8 7 7 5 5 6 8 8 9 11 14 12 15 13 12 14 14 15 17
40 38 37 35 33 33 31 29 27 24 24 22 18 15 13 12 9 7 6 6 7 7 6 6 6 7 6 5 5 4 5 7 8 9 11 12 12 12 13 14 14 14 17 19 22
38 35 34 33 33 32 30 26 24 21 17 16 13 10 8 6 5 3 2 4 4 5 7 7 8 8 7 7 8 8 8 10 12 12 14 15 15 14 13 15 16 19 20 23 26
35 34 34 33 31 30 27 23 19 16 13 9 7 5 3 2 1 1 1 5 6 7 7 8 9 9 9 10 11 12 13 12 13 14 15 15 18 15 15 18 20 21 24 26 29
36 36 35 33 29 26 23 19 14 10 8 3 2 2 3 5 6 7 6 6 7 8 10 10 11 12 13 15 16 16 16 16 16 16 16 16 16 17 19 21 23 26 28 31 32
36 35 32 29 25 22 18 14 9 7 4 3 5 7 8 10 10 11 11 10 10 12 13 13 14 16 17 18 19 19 19 18 20 19 18 17 17 23 21 24 28 31 33 34 34
35 31 29 26 22 18 14 11 10 11 8 10 12 13 14 14 13 13 12 13 12 12 13 15 17 19 19 20 21 19 18 18 19 18 18 17 19 22 24 27 30 32 33 34 36
32 29 26 23 20 17 15 12 13 13 15 17 18 17 15 14 13 12 10 10 10 12 14 13 12 12 12 13 15 15 13 14 16 17 19 19 22 25 27 29 30 32 35 37 39
30 27 25 22 19 17 15 15 14 16 18 18 15 13 12 10 8 8 9 8 6 5 5 6 7 7 7 9 10 12 13 15 18 19 21 22 24 24 27 29 30 33 36 38 39
31 28 25 22 20 18 17 16 16 17 13 10 9 8 8 7 7 5 3 3 3 4 6 7 8 10 11 12 14 16 18 19 21 23 23 22 24 25 29 33 34 34 36 38 37
33 30 26 24 22 20 18 16 15 9 8 7 6 7 6 4 3 3 2 2 5 7 9 11 11 12 14 15 17 18 21 23 25 25 28 29 23 31 36 36 38 38 34 36 38
36 33 29 26 23 21 18 16 11 10 8 4 5 5 4 3 2 1 2 3 5 6 8 11 14 15 17 19 20 21 24 26 29 32 34 34 31 31 39 40 39 38 35 38 41
36 34 30 28 25 21 18 14 13 13 10 7 6 5 4 4 3 3 2 4 6 7 9 13 16 19 20 21 23 26 28 31 32 34 34 39 35 37 38 37 38 38 41 44 47
36 34 31 28 25 19 17 14 16 14 12 9 7 5 5 6 4 1 1 4 7 9 13 18 20 23 25 27 29 30 30 33 34 35 39 33 36 31 37 38 38 41 43 46 49
37 33 31 27 22 19 19 18 17 15 14 11 9 8 8 9 6 4 6 8 10 14 18 22 24 28 31 32 29 29 31 36 37 37 39 35 33 36 36 37 38 39 43 47 51
36 33 30 26 23 21 21 20 19 17 15 13 12 11 12 12 10 10 11 12 14 17 21 26 29 32 33 37 33 29 32 35 36 37 38 37 35 33 37 39 42 44 48 52 56
34 31 29 26 23 23 23 22 20 19 17 16 15 14 13 13 14 15 16 16 18 22 26 30 33 39 41 38 32 30 31 30 28 30 32 34 35 38 40 43 45 48 53 58 61

GFSSW_500_spd_015.txt.gz
Wind_Speed
15 14 14 17 18 19 21 21 23 23 20 22 23 24 17 19 19 18 17 14 12 11 11 13 14 14 14 13 13 13 11 8 6 6 9 11 10 10 10 12 12 10 7 8 9
15 16 16 17 19 16 15 18 21 23 22 19 17 17 16 15 17 17 14 11 10 13 15 16 14 13 12 12 12 12 5 13 13 12 12 12 15 13 12 12 11 11 11 10 9
16 17 17 21 19 19 15 17 19 19 17 15 14 12 13 17 15 16 16 17 21 21 20 18 18 17 15 12 12 13 14 13 15 17 16 17 15 12 12 10 10 10 8 7 4
16 18 17 17 18 21 15 15 18 16 16 15 15 16 20 20 20 19 23 25 25 22 20 18 18 15 9 10 15 15 16 16 16 17 17 16 12 9 8 9 10 8 6 4 3
19 18 18 18 18 18 16 16 17 18 16 16 19 23 22 20 23 26 27 25 24 21 21 18 14 11 11 12 12 14 14 13 13 12 10 9 10 9 10 10 9 6 2 5 6
16 19 18 23 20 20 18 17 17 20 23 26 27 25 25 27 24 24 21 18 16 17 16 18 20 17 18 17 15 12 11 9 8 9 9 9 9 9 8 7 4 2 4 5 6
18 21 22 16 17 18 18 22 24 27 29 28 28 28 27 28 25 25 23 22 21 21 23 19 17 18 16 14 11 10 8 5 5 7 7 7 9 9 8 6 4 4 5 6 8
17 14 18 20 20 25 28 33 38 38 37 36 35 33 31 28 27 24 22 20 18 17 18 15 15 15 15 12 10 8 5 4 6 8 7 5 5 9 9 6 5 6 8 9 11
20 18 22 27 32 36 41 41 41 40 37 35 33 31 29 26 24 23 21 20 18 16 15 14 13 12 11 9 6 3 1 6 7 9 9 7 8 10 12 9 9 9 10 12 14
22 27 34 39 41 40 40 40 38 37 35 33 31 29 25 24 23 21 19 17 16 14 13 12 11 9 6 5 3 11 7 7 9 9 8 8 10 10 12 12 12 14 14 15 17
32 38 41 40 39 40 39 37 34 33 29 28 25 22 22 19 16 15 14 14 14 13 12 10 9 10 8 7 10 10 9 10 12 10 10 11 15 14 16 17 17 17 17 18 21
40 41 40 38 38 38 36 34 32 28 25 24 21 19 17 15 13 11 10 10 10 10 9 8 9 10 9 9 9 9 10 11 10 10 12 13 16 14 16 19 17 18 19 21 24
41 40 37 36 35 34 32 28 28 24 23 21 18 15 13 11 8 6 6 7 8 8 9 10 9 9 8 10 11 12 13 11 12 12 12 15 20 19 19 20 21 22 23 24 26
40 37 35 34 33 32 30 28 26 23 20 15 13 10 8 6 4 4 2 4 6 8 8 9 10 11 12 13 13 15 14 15 14 14 10 10 9 26 21 21 23 24 25 25 29
38 36 35 34 34 31 28 24 21 18 15 10 7 5 3 1 1 2 2 3 5 7 8 9 10 11 13 14 15 17 17 17 17 18 17 16 13 30 26 25 24 26 27 29 31
37 36 35 34 31 28 24 20 15 13 8 6 2 1 3 5 6 7 7 7 8 9 11 13 14 15 17 18 20 21 20 19 19 19 18 19 13 17 26 23 26 29 31 34 36
36 35 34 32 29 24 20 15 11 6 3 3 5 7 10 11 10 9 9 9 10 11 11 12 14 16 17 18 18 19 18 16 16 15 12 15 15 27 26 28 31 33 35 36 39
37 36 34 31 27 22 17 13 9 6 8 10 12 14 14 12 11 10 10 9 9 9 11 13 11 11 10 10 10 10 11 11 13 15 14 20 18 28 27 29 31 33 35 38 39
37 36 32 28 23 20 16 13 9 10 12 14 14 13 11 10 9 7 7 7 7 6 6 6 7 7 8 9 10 10 11 13 15 17 19 19 26 28 32 31 31 33 36 39 40
36 33 29 25 22 19 15 13 13 13 13 13 11 9 8 6 6 5 5 4 4 4 4 5 7 9 10 11 12 14 15 17 17 21 21 13 19 23 32 39 36 37 35 38 38
36 32 28 25 22 19 17 15 14 13 11 8 8 7 7 6 5 5 5 5 4 3 3 4 7 9 10 12 14 15 17 19 22 22 25 26 21 31 36 38 38 38 36 35 38
35 32 29 26 24 20 19 16 14 13 9 7 5 6 6 6 6 7 6 4 1 1 3 4 6 8 11 14 16 18 22 24 24 27 29 31 27 32 34 38 39 36 36 34 37
37 33 30 28 24 21 20 18 16 13 11 9 6 6 7 8 8 7 6 4 3 2 2 5 7 11 15 17 21 24 25 26 29 30 28 33 28 36 36 38 37 37 39 38 43
37 35 33 28 25 23 22 20 17 15 14 10 9 8 9 9 9 8 7 5 3 2 6 10 14 16 18 24 31 33 31 32 34 33 35 29 33 27 32 36 36 35 38 40 42
39 36 32 29 28 25 23 20 19 17 16 14 12 11 11 12 11 9 8 7 6 8 12 14 17 19 21 27 32 34 32 33 34 34 35 28 26 27 28 28 31 35 38 42 46
39 36 34 30 29 26 24 21 21 19 17 17 17 16 16 15 14 12 12 11 11 13 16 19 21 23 23 28 36 34 36 36 33 32 31 30 27 26 28 30 32 37 41 45 50
39 37 36 32 29 27 24 23 23 21 20 21 20 19 18 17 16 16 16 15 15 17 20 24 25 28 28 34 38 42 36 35 32 33 29 29 30 32 34 39 42 44 48 52 56

GFSSW_500_spd_021.txt.gz
Wind_Speed
23 22 20 19 17 13 14 14 17 19 18 18 18 18 18 19 20 18 16 15 13 15 14 17 17 13 25 32 24 21 18 11 13 21 21 22 23 25 24 14 10 2 4 6 8
22 23 21 19 17 14 12 13 16 19 17 17 18 18 18 19 15 13 11 11 14 15 17 19 22 28 37 33 24 21 14 12 18 19 18 22 22 18 18 13 6 4 5 6 8
23 22 20 20 17 15 12 11 11 13 15 15 17 17 17 15 11 12 10 15 16 17 17 18 23 31 38 30 26 17 14 20 23 26 24 18 13 12 11 7 7 7 7 5 7
23 24 21 18 17 15 14 13 10 10 13 15 15 14 17 14 12 12 16 19 21 21 24 27 28 27 34 34 22 18 26 21 21 23 26 10 8 4 1 2 5 5 5 7 8
17 20 21 18 15 16 19 13 11 10 12 14 16 17 18 12 13 19 22 26 29 30 30 27 23 16 17 24 18 25 13 12 20 18 11 6 3 3 3 3 1 3 5 7 6
18 14 18 18 16 17 17 19 15 15 15 16 17 17 18 15 17 22 27 31 33 34 35 30 21 11 14 18 12 8 7 10 9 8 6 4 3 3 3 6 5 4 5 6 7
19 20 17 18 16 13 15 19 17 16 16 18 19 18 18 19 24 29 32 31 28 30 31 24 27 24 17 11 13 13 12 12 10 7 2 1 3 5 4 5 5 9 8 8 9
20 21 19 16 14 17 19 18 16 16 16 17 20 16 18 21 26 29 23 20 10 7 10 12 18 16 19 16 12 10 7 9 9 4 1 3 6 5 5 5 5 8 12 13 14
14 11 15 18 19 19 19 17 16 17 19 21 21 19 22 26 20 19 18 18 20 18 19 19 15 15 18 17 15 11 9 6 10 7 2 5 7 7 4 4 8 10 11 15 20
11 12 15 25 23 20 15 17 20 22 24 24 23 24 22 22 21 18 19 20 22 20 19 20 18 19 16 16 12 12 6 7 14 4 3 5 10 11 10 3 7 11 19 20 23
19 11 12 20 21 19 22 23 25 25 24 27 28 22 25 22 21 20 20 19 18 21 20 21 21 19 14 2 3 14 15 14 13 2 3 5 8 17 18 14 15 18 21 24 26
16 13 14 20 23 27 31 33 34 29 27 24 26 23 20 18 17 16 17 16 15 19 21 17 9 10 8 8 6 14 14 16 10 5 8 11 12 19 20 17 20 17 20 24 27
16 19 25 28 31 33 32 31 32 28 25 24 23 21 18 16 17 15 13 12 15 17 17 12 11 8 7 5 7 13 13 13 14 9 7 12 15 18 15 16 18 18 21 22 25
24 30 32 34 34 33 31 31 30 27 24 21 20 19 18 16 14 12 11 10 11 13 9 7 7 7 9 5 10 10 7 12 13 13 12 14 16 22 20 19 22 26 25 29 28
33 36 38 37 35 34 33 30 28 25 25 22 19 17 15 13 13 11 10 10 9 9 8 6 6 6 5 7 11 10 12 13 15 15 14 16 16 19 27 29 29 29 27 27 24
39 40 39 37 35 34 30 28 27 24 20 20 17 13 12 11 9 8 8 9 10 10 5 8 7 9 10 11 13 15 16 17 19 19 15 15 17 28 27 29 31 28 18 27 39
40 39 37 35 33 31 30 27 23 17 18 16 13 10 8 6 6 6 7 9 8 9 8 8 9 10 10 9 11 11 11 11 10 8 11 12 20 22 24 32 35 35 38 40 42
40 39 37 36 33 31 28 25 20 18 15 13 9 5 5 6 7 9 10 9 8 10 9 9 10 6 5 4 4 6 6 7 6 9 8 14 17 17 20 26 32 36 39 42 39
40 40 38 36 34 31 26 23 19 14 11 6 5 6 5 7 7 7 5 9 10 8 6 2 3 2 2 4 5 6 8 9 9 9 9 16 18 22 23 29 35 34 40 44 41
41 40 38 36 33 30 25 21 16 7 5 4 6 6 6 7 8 8 8 9 9 7 6 2 2 2 2 3 5 7 9 11 12 13 9 12 25 29 32 34 36 41 33 46 49
41 40 39 36 33 29 24 18 11 8 5 7 7 5 4 8 9 9 9 9 9 7 5 3 2 2 4 5 5 9 13 16 18 19 17 11 20 26 34 35 39 40 42 41 37
41 40 38 36 31 26 22 17 10 9 7 8 5 6 6 9 8 8 9 9 7 6 5 5 4 4 2 2 7 10 14 17 21 22 23 24 14 24 30 32 34 32 35 36 36
41 41 40 36 31 27 22 12 11 10 8 7 6 5 7 8 8 10 9 9 9 8 8 5 3 1 4 4 6 12 18 23 27 29 23 26 20 26 32 29 33 29 30 31 33
43 42 40 35 32 27 20 15 13 11 9 7 8 8 8 10 10 11 11 11 11 10 7 4 5 7 8 9 13 18 21 25 30 33 32 27 30 27 34 31 25 25 27 34 35
44 41 38 34 30 25 20 18 13 11 11 9 12 11 11 11 11 12 12 12 12 10 8 7 8 11 13 15 18 21 23 26 29 32 34 33 33 35 31 25 30 31 33 35 37
43 42 39 36 30 27 24 20 15 14 12 11 14 15 12 14 12 12 13 12 13 12 11 11 12 15 16 17 20 22 24 27 28 32 33 35 34 35 31 27 28 33 35 36 41
44 43 41 35 32 30 23 21 21 16 16 15 18 18 12 11 13 14 18 18 18 16 15 16 17 19 19 21 24 26 27 29 32 34 38 38 36 33 31 31 33 33 35 40 44

GFSSW_500_spd_027.txt.gz
Wind_Speed
34 32 27 29 28 26 24 21 18 14 12 12 15 17 17 17 14 14 16 16 15 15 15 20 20 16 24 19 18 19 16 25 20 24 25 16 15 9 11 16 17 19 19 18 18
35 26 28 28 28 24 22 21 16 12 12 13 16 16 15 15 14 13 13 12 13 15 16 17 16 20 22 26 25 26 24 21 19 8 8 16 11 14 20 20 16 13 14 13 12
28 26 26 25 23 22 22 21 16 14 12 15 15 15 14 15 14 13 14 14 14 14 14 14 26 24 33 34 35 29 29 19 18 18 10 9 9 15 18 13 7 11 7 8 6
22 26 26 23 21 21 21 21 16 11 11 12 14 14 15 13 13 15 14 14 14 15 18 35 34 34 30 31 29 16 16 15 10 7 6 4 9 16 8 4 0 8 11 7 6
25 25 24 22 20 24 22 20 16 14 12 12 10 13 15 16 16 16 18 19 20 24 34 34 30 31 28 23 25 17 16 17 14 10 12 11 13 9 4 4 5 7 8 7 8
25 24 22 22 19 16 18 17 16 16 14 11 15 13 15 15 16 18 21 27 31 31 39 36 37 31 22 19 17 16 10 9 13 7 11 10 12 7 10 10 9 7 6 8 9
23 23 23 20 15 15 16 15 17 16 14 13 15 15 14 13 17 21 25 29 31 38 37 35 30 26 19 15 20 9 12 9 8 10 8 11 11 10 11 12 13 11 10 7 5
23 22 20 21 21 17 16 16 17 20 16 16 15 13 12 15 19 25 29 32 39 41 35 29 30 24 21 17 14 16 12 12 12 12 12 10 7 11 11 8 8 10 7 6 8
22 20 20 22 24 21 17 16 16 20 16 16 13 12 13 18 19 27 31 37 40 41 39 35 33 26 20 13 15 16 19 15 13 12 9 8 7 3 4 7 10 7 7 9 10
21 20 18 14 15 17 17 15 16 15 14 13 13 14 18 23 24 30 27 32 36 35 32 30 31 29 21 20 21 21 20 17 15 8 7 7 3 2 4 9 10 6 9 10 10
20 19 14 14 16 17 17 18 19 16 12 12 16 18 20 20 26 31 25 24 18 27 24 18 25 28 28 24 20 20 25 15 15 9 6 7 5 5 5 9 9 9 12 14 15
13 13 14 17 18 21 20 19 17 16 15 19 19 20 20 20 24 26 25 25 22 24 27 29 30 26 23 21 18 16 21 9 6 2 6 8 7 9 10 9 12 14 15 16 16
11 14 12 24 21 19 10 18 18 18 21 22 22 21 19 19 22 24 25 27 28 32 30 27 27 29 23 17 15 14 12 11 8 8 10 13 14 15 15 16 16 14 15 15 19
13 12 14 12 15 15 18 19 21 21 21 22 22 21 21 22 22 24 26 29 28 25 23 21 19 21 18 14 12 11 12 13 12 14 20 20 22 19 19 19 20 19 19 18 18
18 15 15 14 17 21 23 24 24 25 26 25 24 24 23 23 23 22 23 21 17 15 15 14 12 16 17 15 12 11 12 13 14 15 19 24 26 23 24 23 24 24 24 25 20
17 17 17 22 25 27 29 29 28 27 25 26 24 24 23 22 21 21 21 19 17 14 14 18 15 15 14 12 10 10 11 14 17 19 23 25 28 28 26 25 24 23 23 21 23
18 20 27 31 33 34 32 29 28 28 26 24 23 22 20 20 18 18 15 15 15 15 16 20 17 15 14 13 12 13 15 16 17 17 19 20 21 19 20 21 23 25 26 26 26
23 32 35 36 35 33 31 30 28 26 26 25 22 20 18 17 15 16 15 15 15 16 17 17 14 13 13 10 9 9 9 10 10 9 11 13 15 19 20 23 24 25 25 27 26
33 40 39 36 35 32 32 30 28 27 24 20 20 17 15 15 15 14 15 15 17 16 15 14 13 12 10 8 8 6 6 5 4 5 7 8 10 13 16 20 23 25 26 28 31
44 42 39 38 36 34 31 29 25 23 20 18 16 14 14 15 15 15 16 16 16 14 13 14 11 10 10 10 8 7 4 3 1 3 7 10 11 13 17 19 19 21 23 26 29
48 44 41 40 37 35 33 26 24 22 19 16 13 13 14 16 17 17 17 15 15 14 15 15 13 12 12 11 9 7 5 2 3 7 10 13 14 15 17 18 19 21 23 24 27
50 46 43 42 39 36 34 27 24 19 14 10 8 9 12 13 14 15 17 17 17 16 17 15 13 14 13 11 7 5 5 6 8 11 14 16 17 19 20 21 22 23 24 27 30
51 47 44 42 39 37 32 27 22 17 13 7 6 8 12 12 14 16 17 18 19 18 17 16 15 15 12 12 10 10 10 12 13 14 14 16 18 19 20 22 25 26 27 28 29
53 50 46 42 39 36 33 27 21 17 12 8 6 9 11 13 16 17 17 18 18 17 16 17 16 14 12 11 11 12 13 14 15 17 17 20 21 24 24 26 28 28 29 30 31
54 50 44 43 40 37 33 27 21 17 12 10 7 10 9 11 13 15 16 17 17 17 18 17 16 15 13 13 15 15 17 18 20 21 22 23 23 26 27 28 30 31 32 32 34
53 50 46 42 40 38 33 27 22 18 12 10 8 10 10 9 11 15 17 18 19 18 20 19 18 17 16 17 18 19 21 25 25 26 27 29 28 28 30 32 34 36 37 39 40
53 49 46 44 42 39 33 27 24 18 14 12 10 8 12 12 13 16 18 20 21 21 23 22 21 21 21 22 24 22 24 28 28 27 30 32 33 32 34 36 37 38 40 41 43

GFSSW_500_spd_030.txt.gz
Wind_Speed
43 41 32 31 24 24 27 29 24 21 19 17 15 13 16 19 17 15 18 14 16 17 17 21 23 21 17 20 16 13 26 29 25 28 27 26 24 26 26 7 13 11 15 14 11
40 36 33 26 24 24 27 23 21 20 17 17 14 15 15 14 14 14 16 18 16 14 14 14 23 22 19 22 20 14 19 35 31 26 25 30 25 20 10 13 10 10 11 9 7
41 35 31 23 23 25 23 19 20 20 18 15 14 14 15 12 13 15 14 14 11 12 12 16 17 16 24 23 22 17 14 20 14 6 3 7 8 7 13 10 7 10 8 7 8
38 35 29 22 23 24 21 20 20 21 17 12 10 13 14 13 16 15 14 13 13 13 13 13 16 23 22 22 23 24 25 9 6 1 5 3 6 10 11 5 2 6 10 10 9
37 37 27 21 23 22 22 25 23 21 17 13 12 11 15 15 15 15 16 13 14 14 21 26 28 29 31 30 27 26 17 8 8 6 3 3 5 8 6 3 3 5 9 9 8
37 34 23 20 21 24 21 18 18 18 17 12 11 9 15 17 15 14 14 15 13 19 30 28 28 29 31 28 27 16 11 8 7 5 1 4 9 7 8 7 8 8 9 8 6
35 28 21 21 23 20 16 14 16 17 15 14 11 15 15 13 14 13 12 12 17 28 33 30 27 27 24 19 14 14 12 7 6 9 7 9 10 11 9 10 13 11 8 6 6
33 24 21 21 21 18 20 15 18 17 18 16 14 14 14 13 13 12 16 20 26 36 31 30 25 17 13 11 12 4 7 7 6 9 13 11 11 11 11 11 13 13 11 10 6
28 23 22 20 21 24 21 19 19 18 22 17 16 13 13 14 15 19 25 29 35 35 25 27 24 20 16 11 12 10 14 8 10 17 14 12 13 10 12 12 14 13 14 11 7
26 22 22 21 22 21 20 21 19 16 19 15 14 14 13 16 19 26 27 33 36 29 25 26 25 20 15 10 9 13 12 12 15 14 15 15 13 11 12 11 8 9 8 8 8
23 23 20 23 18 15 17 19 15 13 13 12 13 14 16 19 22 30 35 37 35 30 23 18 19 19 15 14 12 16 17 17 16 15 16 14 10 9 8 8 9 9 10 11 12
22 22 19 18 17 17 18 16 15 15 16 15 15 17 18 18 22 30 35 35 33 30 24 16 18 19 19 19 18 23 22 16 14 15 15 10 9 9 7 8 9 12 11 12 14
23 18 17 19 16 15 15 14 16 17 17 17 17 17 17 18 22 27 35 34 18 31 28 22 25 27 28 25 24 21 23 22 15 13 12 10 11 10 10 11 14 14 14 16 17
22 15 15 14 18 15 12 10 17 18 18 21 20 19 18 19 22 25 28 28 27 26 27 24 30 29 27 23 16 17 18 24 14 14 15 16 18 16 16 17 18 19 19 20 21
19 14 12 10 14 18 15 16 20 21 21 23 22 20 18 19 23 26 27 28 29 29 24 23 23 22 22 17 14 13 13 13 12 15 17 18 21 16 19 21 23 24 24 24 24
20 18 15 13 17 18 19 24 23 23 20 23 23 22 21 21 23 24 24 24 20 19 20 19 15 15 17 18 15 14 14 14 15 16 19 21 23 20 21 22 23 22 23 23 25
23 21 18 19 22 23 26 26 25 25 23 22 22 22 22 21 21 21 20 19 18 17 16 14 16 13 16 16 16 14 15 16 17 17 17 17 19 14 13 14 16 19 21 23 23
26 22 22 26 27 31 31 29 27 24 24 24 22 22 21 21 20 18 17 16 15 15 15 16 16 16 16 15 16 16 15 14 12 12 12 11 7 7 7 9 11 12 14 16 20
27 27 29 31 35 35 33 30 28 25 25 23 22 20 19 19 18 16 15 15 16 15 18 17 16 16 15 14 14 12 11 9 8 5 4 5 4 3 5 6 8 10 12 14 17
30 33 35 39 39 36 33 30 27 24 24 22 19 18 17 16 16 14 14 14 15 16 16 16 17 16 14 13 12 11 9 6 4 3 3 6 7 8 10 11 13 15 17 19 21
38 41 43 43 39 36 32 29 26 25 24 21 19 18 16 15 14 15 15 15 16 16 16 17 14 15 14 13 11 11 9 7 5 5 9 10 10 10 11 14 15 17 19 21 24
44 47 47 43 41 36 32 29 27 26 22 20 16 14 14 16 17 17 17 17 17 16 17 18 16 16 15 15 14 12 9 7 8 12 13 14 13 17 18 19 20 21 23 25 28
49 50 47 43 40 36 32 29 25 23 20 15 11 11 12 12 12 15 17 18 17 17 18 18 17 18 17 16 14 11 10 12 14 15 15 17 19 21 22 23 24 25 28 30 32
53 52 49 44 40 37 33 29 25 23 16 10 7 8 10 11 14 17 17 18 18 18 18 18 17 17 16 16 16 14 14 15 17 17 19 21 22 25 24 24 26 27 30 32 34
57 53 47 45 42 38 36 31 25 20 13 10 8 8 12 13 15 16 16 17 18 18 19 19 19 19 18 16 17 17 17 18 19 22 23 25 27 30 29 28 30 31 34 36 37
57 52 48 44 41 37 36 31 25 19 15 11 8 7 10 11 14 16 17 18 18 19 20 20 20 21 21 20 21 21 20 21 24 26 27 30 29 32 32 34 34 35 37 39 41
57 53 48 45 42 39 36 29 22 20 16 12 9 8 11 12 13 14 15 17 19 21 21 21 22 23 24 24 26 25 20 27 29 29 32 33 35 37 36 36 37 37 40 43 45

GFSSW_500_spd_033.txt.gz
Wind_Speed
40 44 49 42 36 35 26 21 24 24 20 19 18 19 18 15 13 17 20 15 14 15 18 19 28 27 22 19 19 18 19 18 26 18 16 18 24 24 25 27 10 3 7 5 4
42 43 47 42 38 33 24 22 22 19 18 18 17 18 18 15 12 16 14 15 14 16 16 18 26 26 23 19 17 14 16 20 26 27 28 31 30 11 17 26 13 4 5 1 2
43 45 48 43 36 30 22 22 19 18 20 19 17 13 12 15 15 13 13 15 18 16 15 17 20 25 23 19 21 20 13 17 24 26 16 12 8 11 5 4 2 4 5 4 6
42 44 47 42 36 28 21 20 20 20 21 19 16 12 11 14 15 14 14 13 13 14 16 18 19 21 22 23 24 15 10 15 13 24 11 11 16 5 6 8 3 2 6 7 5
42 44 47 40 32 23 21 19 22 25 21 19 15 14 11 10 13 14 14 10 10 12 13 15 18 20 21 24 22 20 20 9 6 6 14 13 4 2 4 6 4 5 7 5 4
42 45 46 37 26 22 21 20 19 16 16 15 14 12 12 12 13 12 11 10 11 9 13 21 28 29 21 20 17 16 16 6 6 12 8 4 3 4 1 2 2 1 3 5 4
42 45 44 34 23 23 20 15 17 14 14 14 13 13 13 12 13 12 9 10 10 21 27 29 27 27 25 21 19 12 11 7 3 3 7 6 4 8 5 2 4 5 5 5 5
39 43 40 29 23 23 20 16 16 14 15 15 14 13 11 14 12 11 10 11 21 32 26 26 28 23 21 18 15 13 8 5 3 5 8 7 12 11 7 7 6 7 9 9 6
39 40 33 27 24 23 19 20 19 15 19 17 17 11 11 13 13 12 13 19 30 29 21 26 18 19 16 11 9 7 5 4 4 10 14 12 11 9 9 11 7 6 12 11 10
39 37 30 26 23 22 22 20 21 19 18 17 16 13 15 15 15 15 16 27 26 24 21 21 19 17 16 11 9 5 6 5 10 13 12 12 11 9 10 10 8 9 9 12 11
37 35 28 25 21 23 18 15 15 16 14 14 15 15 15 15 15 16 20 31 24 22 22 23 22 20 16 10 8 12 14 15 15 12 13 12 11 8 9 10 10 8 8 9 10
36 32 25 25 19 20 16 17 15 14 14 14 15 15 16 16 17 20 21 30 30 24 20 18 16 18 16 13 10 17 16 13 10 10 12 11 11 9 7 7 8 7 8 10 12
33 27 24 22 19 19 17 15 14 15 15 15 15 17 18 19 21 20 26 29 29 23 21 18 12 14 15 14 15 18 21 15 13 12 13 12 12 9 8 8 9 10 11 12 14
31 22 23 17 21 14 17 15 16 14 17 17 17 17 17 17 17 25 28 30 28 26 24 22 20 15 19 20 20 17 18 20 21 17 16 16 14 12 11 10 11 13 15 16 18
28 22 20 16 15 18 16 15 14 17 16 19 20 19 19 19 19 23 23 32 28 26 26 23 24 20 22 23 19 14 16 18 18 22 21 15 16 10 13 13 15 16 17 18 17
26 23 16 14 15 22 20 16 16 18 20 23 22 20 18 18 19 21 23 27 31 30 24 23 20 22 23 21 17 14 13 14 16 17 17 14 18 12 14 15 14 14 14 15 15
26 23 19 19 18 22 22 20 21 20 20 24 21 20 19 18 21 21 22 24 23 24 21 20 18 18 16 20 20 18 16 16 17 16 16 14 13 7 7 8 9 10 12 14 16
29 26 23 25 24 25 24 25 24 24 23 22 22 21 19 19 20 21 21 19 18 18 17 18 19 17 13 13 17 17 16 18 17 13 9 8 3 5 4 3 4 6 7 10 12
33 30 28 27 27 30 29 28 26 25 25 25 23 21 21 20 19 18 17 17 17 16 18 18 18 16 14 15 16 17 17 14 10 6 4 2 2 3 5 5 5 6 7 10 12
38 32 30 32 31 35 34 31 30 27 26 24 21 20 18 16 16 14 15 15 15 16 18 18 17 16 16 17 17 15 13 11 8 6 4 3 4 5 6 7 8 9 11 14 17
43 40 37 36 37 40 36 34 32 27 25 22 20 18 17 16 16 15 15 15 16 18 19 17 18 17 19 17 16 14 12 10 8 7 5 6 6 7 10 12 14 15 16 19 21
47 43 40 40 43 43 40 36 31 27 25 23 21 18 18 18 17 18 18 18 19 19 18 18 18 17 15 17 16 14 12 11 10 10 11 11 9 12 15 17 19 19 21 22 24
48 45 42 46 47 45 40 35 30 26 25 21 19 17 17 18 19 20 20 20 19 18 17 18 17 16 16 15 14 15 14 13 14 14 13 14 17 18 19 22 23 24 26 27 29
48 48 48 52 49 44 39 34 29 25 23 19 17 16 16 16 17 17 19 19 18 17 16 18 16 16 16 17 19 18 18 17 17 16 18 16 21 24 26 27 28 29 31 33 34
52 51 52 55 50 44 39 33 28 26 24 19 14 10 12 12 13 14 16 17 17 17 17 18 17 18 18 20 21 20 20 18 18 20 22 22 25 29 32 32 33 34 36 36 37
51 54 55 52 48 44 39 34 30 27 20 15 9 7 8 12 12 14 15 14 15 17 17 18 18 20 21 22 22 21 20 19 21 24 27 30 27 35 36 37 37 38 39 40 41
48 55 56 53 49 44 38 34 30 24 20 14 9 7 7 12 12 13 13 13 13 15 17 18 19 21 22 24 26 26 19 24 28 30 32 34 34 38 40 41 41 42 43 44 44

GFSSW_500_spd_036.txt.gz
Wind_Speed
39 37 38 39 42 44 43 43 33 25 25 19 14 16 18 20 19 15 17 12 13 15 17 18 20 26 32 26 19 20 16 19 18 22 19 24 28 24 25 24 19 14 10 5 4
38 39 38 36 41 42 42 41 29 24 21 17 17 17 18 19 18 13 11 14 13 14 14 16 16 27 30 22 17 15 15 21 23 21 20 19 23 20 16 12 17 22 7 9 6
34 36 39 38 39 41 42 39 26 22 18 17 18 18 16 14 15 14 14 11 11 12 13 16 16 21 24 20 16 15 21 21 17 26 27 20 12 10 9 5 6 7 10 10 6
33 36 37 38 41 41 41 34 23 18 21 21 21 19 16 14 15 13 13 11 12 15 15 17 18 20 20 20 19 20 18 14 14 16 16 14 15 13 10 6 7 9 10 10 8
33 33 37 39 41 41 40 29 22 22 21 21 18 17 15 14 10 11 12 10 10 13 15 17 19 16 23 22 20 18 17 20 5 9 10 15 12 13 7 7 10 10 6 8 8
34 33 36 40 42 40 36 26 22 21 19 16 14 14 13 14 11 8 10 12 11 13 12 15 18 20 20 20 23 21 22 10 18 12 13 9 7 9 6 7 9 9 8 7 6
34 31 34 39 41 37 30 23 22 19 15 14 11 14 15 12 8 9 10 12 10 11 12 14 20 21 22 23 23 21 12 5 10 12 8 5 3 8 8 6 4 3 3 5 5
33 32 34 39 40 33 27 21 21 20 14 11 13 14 14 10 12 11 11 9 11 18 26 26 28 23 23 21 16 10 13 11 7 9 8 6 11 9 7 6 4 0 2 2 6
33 33 36 39 36 32 24 21 21 20 16 13 15 18 13 11 12 12 12 9 22 29 27 25 25 23 21 14 10 6 6 8 10 10 11 10 13 8 6 4 4 3 4 6 8
33 35 36 35 34 28 20 21 22 17 16 16 17 17 14 12 13 13 10 16 27 28 25 19 23 20 18 12 7 6 10 7 7 7 9 11 9 7 7 5 5 3 7 11 12
34 35 35 34 31 23 18 22 19 15 17 16 15 16 13 14 14 14 13 21 23 27 20 25 18 14 13 13 11 9 16 9 10 9 12 11 10 9 7 5 5 5 7 11 12
35 35 32 32 28 22 16 19 17 12 15 13 14 16 15 16 15 14 17 24 22 24 21 15 15 20 17 10 8 10 16 12 12 9 9 10 11 8 7 7 6 9 11 12 13
33 32 31 31 25 19 17 16 17 15 14 14 18 17 17 18 17 19 21 26 23 20 20 23 17 17 19 16 10 9 21 16 8 7 6 8 10 9 9 8 10 11 13 12 13
33 31 31 30 22 17 15 17 15 16 16 17 17 16 18 18 18 22 23 27 27 27 23 17 15 12 14 13 12 12 16 16 11 10 9 11 8 15 14 14 15 15 14 16 16
34 32 33 28 20 16 15 16 16 17 21 20 20 17 18 19 20 25 27 30 25 24 19 18 20 16 9 14 16 15 10 11 12 16 18 18 19 21 16 18 18 18 19 19 18
35 35 33 24 19 17 18 16 18 20 23 20 19 19 19 20 21 22 26 29 28 23 21 22 19 17 17 16 17 14 12 13 15 16 18 21 19 17 17 20 22 21 20 19 17
40 38 32 28 21 18 20 20 20 19 17 17 18 19 19 19 20 23 24 26 27 26 24 20 18 19 15 14 16 15 15 15 15 17 17 16 19 13 13 15 16 16 15 14 15
47 40 35 29 24 21 22 24 24 19 19 19 22 21 20 19 18 20 23 23 26 25 21 21 20 16 14 15 18 21 18 17 17 17 19 16 11 11 11 10 8 7 7 7 7
52 45 39 32 28 26 27 27 22 22 21 22 24 22 21 19 19 20 21 21 20 18 19 17 19 18 19 18 17 16 17 17 18 15 12 9 8 6 6 7 7 7 8 8 10
57 49 40 35 33 31 29 25 27 26 24 25 24 23 21 19 18 19 18 17 17 18 17 19 20 21 20 20 19 19 18 16 13 11 9 8 7 9 8 8 7 9 11 13 16
62 53 46 42 39 36 30 30 31 30 28 26 23 20 18 16 16 15 16 17 17 17 19 20 21 20 21 20 20 19 16 14 13 12 11 8 10 10 10 10 11 13 16 18 21
64 58 52 47 42 36 34 38 35 33 31 27 24 23 20 17 17 17 16 17 18 19 21 20 21 21 21 20 21 19 16 15 15 14 13 12 10 13 13 14 15 18 20 23 25
65 62 56 50 45 38 39 42 39 35 32 29 26 22 20 19 19 17 18 19 20 22 22 22 23 22 21 18 15 15 16 17 16 16 15 15 14 18 17 18 21 23 25 28 30
62 60 54 47 43 39 44 44 41 36 32 28 25 21 19 19 20 21 22 23 23 23 23 23 22 19 18 18 17 17 19 19 19 18 19 17 20 21 25 25 25 29 31 34 36
63 57 53 49 47 45 48 44 41 35 31 27 23 20 19 19 21 21 21 23 23 22 21 20 18 18 17 18 18 19 22 22 21 21 22 20 23 25 33 33 32 34 37 39 42
61 56 54 45 46 52 53 48 40 34 30 24 20 17 16 16 17 17 17 17 17 17 18 17 17 18 18 18 19 21 22 22 23 23 25 28 27 31 36 39 40 41 43 45 47
60 54 50 46 52 55 53 46 39 34 31 26 20 15 13 14 15 15 15 14 14 15 17 17 17 19 18 20 23 23 21 24 26 27 30 33 33 37 40 45 46 47 49 49 49

GFSSW_500_spd_042.txt.gz
Wind_Speed
34 35 36 36 32 29 29 27 30 35 41 42 42 35 31 29 27 26 25 21 15 11 11 9 12 14 20 26 23 21 19 12 5 21 35 41 19 9 21 29 30 32 25 22 16
34 36 35 36 32 28 28 29 30 35 40 41 40 33 31 30 29 26 23 21 16 11 10 10 12 12 11 19 27 22 17 8 24 29 37 40 17 7 12 18 19 25 19 19 25
35 36 36 34 30 28 28 28 30 35 40 40 38 31 29 29 31 23 21 20 18 13 12 10 8 12 10 11 22 22 15 10 16 21 18 21 25 16 14 17 20 18 14 16 11
36 37 35 32 29 27 27 27 29 34 40 39 35 31 26 26 28 18 18 19 18 12 10 8 9 10 10 10 15 25 16 18 11 19 17 20 18 13 10 14 9 11 11 9 15
38 37 33 32 27 27 28 27 29 33 39 37 32 30 26 24 19 15 16 18 16 10 10 9 9 9 10 13 17 20 14 21 29 24 24 16 12 2 16 22 21 9 9 8 10
38 36 33 31 29 29 29 27 28 32 36 35 31 27 25 20 16 18 15 16 13 9 9 12 11 11 12 13 15 12 19 19 26 22 28 28 6 14 7 11 7 8 10 8 6
39 35 33 31 29 29 29 28 28 32 34 33 29 26 23 18 14 13 12 11 10 9 7 9 12 13 14 15 19 13 22 25 18 23 13 11 11 8 6 6 10 8 8 7 6
39 37 34 30 27 28 28 29 28 33 33 32 28 25 23 17 14 13 9 8 7 9 10 9 10 13 17 20 20 17 18 21 14 19 11 11 9 9 9 5 6 8 7 5 6
39 36 33 29 27 28 28 28 29 32 31 31 28 24 21 18 16 13 11 10 8 9 8 9 11 15 17 19 19 20 13 3 10 5 2 3 11 9 4 5 6 4 5 4 4
36 34 34 30 28 27 29 28 28 31 30 28 27 23 20 16 15 11 10 8 7 6 6 8 16 18 19 23 16 6 9 2 3 3 7 4 4 3 5 5 4 3 3 2 2
36 35 35 32 29 27 28 28 28 30 28 28 24 23 18 18 13 10 9 9 5 7 11 11 20 17 16 18 4 4 6 6 10 8 7 12 11 5 5 6 8 3 6 5 6
39 39 36 31 28 27 28 28 28 30 27 28 25 18 14 16 12 10 9 10 9 17 20 11 16 16 6 8 5 3 8 12 18 7 7 9 11 4 3 3 6 7 6 8 9
41 39 36 30 27 27 28 28 28 29 26 28 22 16 12 11 10 10 9 11 10 18 17 9 17 15 6 7 8 5 12 21 19 4 4 10 10 14 5 6 7 10 13 13 13
36 34 33 33 32 30 28 27 27 28 27 28 21 14 12 11 10 12 11 14 16 10 21 9 18 16 13 7 8 12 13 2 5 5 8 16 16 23 24 7 5 12 17 21 21
37 34 35 34 35 32 28 26 26 26 26 26 16 18 16 11 12 14 14 18 14 11 26 17 21 15 8 18 10 14 18 7 6 11 17 21 18 13 21 8 14 11 16 25 28
39 34 35 36 38 33 31 28 27 25 24 22 13 15 16 12 15 16 19 19 19 11 20 13 13 8 20 12 9 13 6 4 7 11 16 18 9 18 22 18 21 12 14 23 30
42 37 37 40 41 33 34 31 28 29 18 20 15 14 14 13 15 16 21 19 22 19 11 15 14 14 14 15 12 13 8 9 18 16 8 6 15 13 25 19 23 27 25 26 25
45 40 39 42 42 40 35 34 30 24 22 18 14 11 11 12 14 16 20 20 15 20 7 6 9 8 15 13 16 11 9 15 12 5 8 13 5 13 19 21 19 22 20 16 15
50 45 42 47 47 46 42 38 33 20 19 20 16 12 13 15 14 16 19 20 18 18 19 21 25 22 13 12 21 1 10 17 12 14 12 10 11 19 15 19 17 12 13 13 14
55 48 47 52 52 51 47 41 36 25 22 20 17 12 16 15 15 15 16 15 19 15 25 23 25 21 14 10 14 13 14 11 13 15 13 3 3 22 16 15 15 15 15 15 17
60 53 54 56 58 55 46 39 37 27 27 27 18 15 17 15 16 17 16 14 19 24 31 26 17 13 9 14 14 14 15 16 17 16 15 9 10 17 21 18 16 18 18 20 21
62 56 59 59 56 49 42 41 37 31 31 27 23 20 20 21 20 20 18 16 18 19 22 21 17 16 10 18 16 16 17 17 19 16 22 18 22 18 19 19 19 20 23 24 25
63 61 62 64 57 49 46 43 41 36 34 28 26 24 24 23 19 20 17 23 23 21 22 25 22 21 16 16 13 16 18 21 22 25 20 20 17 23 22 22 25 24 26 27 29
67 68 70 57 55 54 48 47 45 41 38 29 28 26 26 25 25 23 24 26 19 23 22 22 18 20 20 15 19 19 18 23 24 26 18 21 19 21 23 30 33 28 25 31 36
75 68 68 62 55 51 52 50 47 44 40 34 33 32 29 27 25 25 25 20 20 21 22 22 19 20 22 22 26 21 24 19 22 21 22 17 23 21 18 27 37 39 36 37 38
76 69 64 62 59 57 54 50 51 46 41 36 37 33 31 28 25 24 24 22 21 21 23 22 22 27 26 25 27 25 25 22 21 21 23 22 25 24 28 40 36 40 39 44 46
73 70 68 68 61 60 52 53 52 51 43 38 33 32 31 26 27 29 24 24 24 22 23 23 24 26 25 26 26 23 20 22 20 22 23 25 26 31 33 40 40 36 42 46 47

GFSSW_500_spd_045.txt.gz
Wind_Speed
34 33 32 32 31 32 31 28 26 25 27 29 35 39 38 39 37 32 32 28 23 19 17 11 7 10 17 23 23 24 24 13 14 11 20 28 23 29 19 7 19 22 19 25 24
35 34 33 33 32 31 29 27 26 26 26 29 34 39 38 39 36 29 29 24 17 18 16 13 11 12 12 23 27 25 19 13 17 15 22 26 28 31 27 17 19 16 18 19 21
36 36 35 34 32 30 28 26 24 27 27 30 34 39 38 39 34 29 28 21 16 18 12 12 11 9 12 10 27 27 18 13 15 16 18 15 16 17 19 21 13 13 19 19 15
37 37 36 35 33 30 27 25 25 27 27 30 34 37 38 36 32 26 22 18 17 19 11 9 5 5 10 8 13 29 23 13 14 20 15 15 15 18 13 16 11 15 13 17 11
39 38 37 36 34 30 26 25 26 27 28 30 33 35 37 34 31 23 22 21 18 18 9 7 5 8 9 14 18 25 19 17 19 20 21 20 16 13 21 14 15 15 16 10 10
39 37 37 36 33 29 27 25 25 26 28 29 33 34 35 32 28 22 18 14 15 13 5 8 7 9 9 15 17 19 15 20 17 19 29 27 24 22 12 5 3 12 8 8 6
39 37 36 35 32 29 28 24 24 26 28 29 33 33 33 31 26 19 14 14 11 7 6 6 10 10 12 15 20 22 19 22 20 17 22 26 23 20 3 8 4 2 7 9 4
40 37 36 34 29 29 28 25 24 25 27 29 30 32 31 28 23 20 15 12 9 5 5 5 7 9 11 12 12 10 20 23 20 19 24 13 6 5 4 3 2 4 3 1 2
40 37 35 32 29 28 28 25 24 25 27 28 29 30 30 27 20 17 13 11 11 7 4 4 9 9 12 15 14 17 14 7 7 5 3 11 8 10 10 6 5 3 3 5 6
41 38 35 33 29 27 27 26 25 25 25 27 26 29 28 23 18 15 11 11 10 5 3 2 2 7 11 12 14 15 7 7 14 12 11 4 6 5 6 6 4 4 5 5 4
42 40 37 32 30 28 27 27 24 23 25 27 25 26 27 17 15 13 8 11 8 7 6 4 11 11 12 14 15 6 9 2 9 4 9 8 5 6 1 3 2 1 3 3 5
42 40 37 32 31 29 28 28 24 23 24 26 23 26 20 15 11 10 9 10 7 10 9 8 11 15 16 8 5 7 3 5 8 6 10 9 6 2 2 4 2 2 2 4 4
44 42 39 35 33 30 27 28 24 24 23 25 22 23 18 11 9 9 8 8 6 7 11 10 11 8 11 11 6 3 2 10 20 17 10 12 10 11 4 5 4 4 3 5 7
46 43 40 37 34 30 28 28 26 24 22 22 19 17 13 10 8 12 12 9 9 10 16 16 6 9 17 13 7 9 4 21 10 13 11 14 13 19 21 14 16 10 9 8 9
46 43 39 37 31 29 29 31 27 24 22 21 16 16 12 10 14 9 12 15 11 8 17 7 11 20 17 14 5 4 9 4 8 5 10 10 17 24 23 20 22 19 9 13 18
46 43 38 33 32 31 32 32 28 25 23 21 14 15 11 13 11 14 13 12 10 15 13 7 10 19 9 8 5 1 4 8 12 15 17 9 14 7 18 10 16 20 2 16 20
49 41 38 37 35 32 33 33 30 25 20 20 15 15 13 15 16 17 17 16 15 16 5 10 13 6 9 1 4 12 11 16 17 14 10 11 10 10 16 14 13 12 11 12 21
47 46 39 38 38 34 35 34 30 26 22 23 19 16 13 15 19 18 18 11 18 14 14 13 8 9 9 10 15 13 14 17 17 14 20 11 13 7 13 15 13 16 11 9 11
51 47 41 41 39 40 39 35 27 28 23 21 22 18 12 16 17 14 16 13 15 11 20 17 20 21 19 23 18 16 19 16 16 11 9 4 12 16 12 17 14 11 11 11 12
55 51 43 46 43 43 40 33 32 28 26 25 24 20 12 14 14 12 14 13 13 15 21 22 22 15 21 12 13 12 11 5 13 12 8 10 14 14 14 15 12 12 13 14 15
60 57 49 49 46 45 44 38 34 31 33 29 27 23 16 14 14 13 13 12 15 19 23 24 27 21 27 18 15 10 13 14 15 15 12 9 15 15 13 12 17 17 15 16 19
60 58 55 55 51 46 44 41 37 34 33 33 29 27 19 16 13 13 15 12 11 21 26 25 21 29 4 11 10 10 14 16 17 13 19 14 14 22 15 20 21 22 21 19 21
61 58 61 58 52 46 47 46 44 38 39 38 33 28 24 23 22 21 18 19 19 24 25 20 24 23 19 10 9 14 16 18 19 21 18 20 12 18 22 26 28 31 27 26 26
66 65 64 58 51 49 46 48 46 41 41 41 35 30 27 27 29 22 22 25 24 25 23 21 24 22 19 19 18 19 19 17 21 26 23 21 15 17 23 25 31 34 32 28 25
74 66 58 54 54 52 55 55 50 46 42 43 40 33 31 30 31 33 26 28 25 22 23 23 22 21 22 22 22 26 22 17 21 17 20 13 18 16 20 27 30 34 34 33 37
78 63 55 51 52 54 55 52 48 45 43 46 40 34 36 34 31 27 27 25 19 20 23 24 23 24 25 24 24 26 22 20 24 22 21 19 18 17 25 30 33 35 36 38 41
75 65 58 53 54 57 52 52 49 47 46 43 38 32 37 32 28 32 28 24 24 24 24 25 25 26 27 26 27 28 19 24 22 22 22 24 25 26 28 31 34 35 35 36 41

GFSSW_500_spd_048.txt.gz
Wind_Speed
35 33 31 30 30 31 30 29 28 26 24 23 26 30 33 35 37 39 35 32 28 20 17 19 12 10 15 21 24 21 16 15 17 27 28 23 15 15 15 23 11 22 33 29 25
36 35 33 31 31 31 30 30 28 25 24 25 25 29 33 35 36 39 37 31 24 16 17 20 14 8 11 22 26 21 13 17 27 30 23 19 14 14 15 17 21 21 16 20 26
38 37 35 32 32 32 31 30 29 25 24 25 25 29 32 35 36 35 34 28 22 17 18 18 13 10 10 14 27 24 19 20 25 28 30 14 10 14 16 12 18 20 14 16 21
41 39 37 34 33 33 32 30 28 26 25 23 25 29 32 35 35 35 31 26 21 18 17 16 11 3 12 9 15 26 27 18 25 24 20 7 10 12 19 18 16 15 23 16 20
44 40 38 36 36 34 32 30 27 25 25 23 25 29 32 33 32 33 27 23 15 16 16 10 7 8 19 19 19 23 26 25 22 27 16 14 12 16 16 17 18 18 20 15 16
44 42 40 38 36 35 32 29 26 24 24 22 25 28 32 33 32 31 25 16 15 13 6 5 10 10 15 16 15 18 31 25 17 20 19 17 18 17 14 8 9 11 8 5 14
45 42 41 38 36 34 31 28 24 23 23 21 24 28 29 31 31 27 22 15 12 10 4 6 10 10 11 8 12 22 26 21 15 18 19 16 16 18 14 4 3 2 7 6 9
45 42 40 38 36 34 31 27 24 23 20 22 24 28 27 31 30 21 18 14 9 11 8 9 7 12 13 8 10 18 19 16 15 14 16 22 21 11 8 8 5 5 2 5 9
44 42 41 38 36 34 31 27 25 21 20 23 23 27 25 27 26 20 16 11 9 12 11 12 13 11 15 10 10 15 15 17 17 17 12 1 8 12 8 9 8 3 4 2 3
45 43 39 37 36 34 32 28 25 19 21 24 22 24 23 26 23 19 14 9 11 13 11 9 6 9 11 8 10 14 13 15 10 9 12 11 10 11 5 3 6 0 1 3 6
48 45 41 38 36 35 33 29 25 18 22 22 21 25 21 25 21 16 14 8 11 11 4 4 5 12 16 15 15 16 21 14 13 13 5 9 6 2 5 7 2 3 2 2 2
48 45 41 40 38 36 34 32 24 19 22 21 21 21 20 23 15 13 12 11 11 6 3 4 7 7 9 15 10 20 8 9 12 8 7 7 2 9 7 8 4 3 2 4 2
48 44 41 40 39 37 35 31 24 24 23 22 21 18 19 20 12 12 10 12 9 6 4 5 12 11 12 13 13 8 9 13 17 9 4 3 11 10 8 8 6 3 3 2 3
51 46 43 41 40 38 34 31 26 27 24 21 21 17 17 17 11 10 11 14 12 4 3 2 5 8 19 18 10 4 5 9 12 11 13 17 15 11 12 6 3 3 6 4 1
53 49 46 43 41 40 37 34 29 28 27 22 18 15 16 15 10 9 13 15 15 7 4 1 6 13 16 16 6 9 5 2 13 16 15 13 14 8 13 14 9 11 8 7 7
53 51 48 43 43 42 38 34 34 29 28 21 16 16 13 14 13 16 13 15 13 10 2 3 8 17 19 16 10 7 6 3 10 16 14 14 17 9 14 16 6 5 8 7 4
53 49 47 45 44 43 39 35 33 32 25 23 18 15 13 14 14 17 16 17 16 10 3 7 7 22 18 16 11 8 6 12 14 15 14 18 20 5 11 7 4 4 5 5 7
51 49 45 47 45 45 42 40 37 32 28 27 22 16 13 15 14 17 20 20 22 15 13 10 11 14 18 15 12 9 10 19 23 19 17 20 20 18 11 3 4 2 5 8 4
52 49 48 48 48 46 45 43 37 32 28 30 29 20 16 15 17 19 19 16 22 20 17 18 14 22 14 16 15 15 14 16 22 20 13 13 22 14 11 11 12 6 5 8 8
57 54 49 51 51 47 47 44 41 30 32 33 29 24 17 16 18 19 22 18 22 21 19 20 22 21 20 19 20 17 18 16 18 18 13 14 21 17 15 15 12 10 7 11 10
62 58 55 54 51 54 51 47 44 31 32 32 29 28 21 18 17 18 21 22 23 22 23 24 26 23 23 19 12 20 18 19 15 12 15 14 19 20 18 16 15 15 14 14 13
66 63 60 58 57 52 45 46 48 32 36 33 32 30 24 19 20 19 21 21 19 20 27 27 26 26 21 26 25 23 16 20 17 14 16 18 16 18 22 23 23 22 20 18 16
69 68 66 61 57 51 46 44 50 36 37 37 35 34 28 22 23 21 23 20 17 21 27 28 26 20 20 19 14 15 20 19 20 21 22 23 15 19 22 23 28 30 27 23 22
75 74 70 63 56 51 47 43 50 38 40 38 36 35 29 26 25 25 24 22 19 21 24 22 21 24 21 16 21 21 21 21 21 22 22 23 20 22 24 25 28 31 31 25 21
81 76 69 63 58 54 53 50 51 46 43 42 41 36 31 31 29 29 30 29 24 26 27 25 25 23 21 20 23 24 26 23 25 24 24 19 20 19 24 30 29 29 31 27 26
82 74 67 59 56 56 55 50 48 48 46 44 41 36 35 32 32 29 29 30 27 28 30 29 27 25 24 23 25 27 28 26 22 23 26 26 23 21 22 28 28 28 29 30 32
83 72 65 61 60 59 53 52 51 47 49 44 42 41 38 31 33 32 35 32 30 28 23 23 25 25 26 25 27 30 26 30 30 30 28 27 26 25 24 25 25 27 28 31 34

GFSSW_500_spd_051.txt.gz
Wind_Speed
41 40 38 36 34 33 32 29 28 29 28 28 26 26 28 31 34 36 40 41 35 31 22 19 20 14 14 14 18 20 18 18 19 14 21 19 15 17 15 13 10 27 13 24 27
43 42 39 37 35 34 33 31 28 30 28 28 25 25 28 30 33 36 40 39 34 26 19 19 19 14 11 13 18 17 19 16 21 22 23 24 15 7 11 12 17 16 11 17 19
45 42 40 38 37 36 34 32 30 30 28 26 25 25 28 30 32 37 39 39 32 22 17 18 16 11 10 13 18 21 20 25 24 26 27 23 20 11 11 14 19 13 14 13 13
45 42 41 40 39 37 35 34 31 31 29 24 24 25 28 29 30 36 38 34 27 18 17 19 13 9 11 15 19 24 24 25 25 30 25 20 23 16 14 19 18 13 12 17 20
45 43 43 42 42 38 37 35 33 31 29 23 23 25 28 28 30 34 36 30 21 17 19 11 9 9 13 18 13 17 26 24 25 24 21 20 20 16 16 18 19 11 13 17 18
47 45 45 44 43 40 37 36 34 32 28 22 23 25 27 27 29 34 34 27 17 15 13 8 8 8 9 16 12 13 27 30 28 19 15 21 21 20 17 13 9 7 11 9 10
48 45 46 46 43 41 39 36 34 32 27 22 23 25 27 25 28 33 33 26 15 12 11 9 10 10 6 11 12 15 21 26 22 16 16 20 19 14 12 6 4 8 11 7 7
52 48 47 46 42 39 36 35 34 32 26 23 24 25 26 23 26 32 29 23 15 13 11 11 9 9 12 10 10 16 17 20 24 16 16 15 16 8 7 5 5 7 9 9 8
50 49 46 43 40 37 34 33 35 33 25 24 24 24 24 22 25 31 28 20 15 12 13 13 12 13 11 12 10 13 11 14 17 17 16 4 10 10 6 3 1 6 8 6 8
51 48 46 47 40 37 37 34 35 32 25 26 23 23 22 21 25 29 25 19 12 11 13 12 12 12 11 14 16 15 15 15 15 12 12 16 13 7 5 4 2 4 6 6 7
53 50 48 44 49 38 35 34 34 30 24 27 24 23 23 22 23 27 22 19 11 9 9 7 6 9 11 15 17 16 17 15 14 10 15 15 17 12 7 4 6 8 7 5 3
55 52 50 46 45 41 40 37 33 27 26 29 26 23 22 20 23 24 17 16 10 9 7 4 3 5 10 11 10 11 12 13 10 12 9 10 14 18 13 7 5 3 5 9 10
55 53 49 45 43 40 36 35 33 30 29 29 26 24 22 19 22 20 14 14 9 8 7 3 8 8 11 6 8 8 8 13 16 12 12 8 7 13 12 10 9 8 6 7 8
55 53 49 45 41 38 34 33 34 28 32 27 30 26 18 19 20 15 14 12 8 7 7 8 9 10 8 11 11 10 8 11 17 14 9 6 6 10 11 13 8 3 3 3 5
55 52 50 47 42 41 36 33 33 29 34 30 30 24 19 18 19 13 18 14 11 7 8 11 6 9 10 18 13 9 8 14 14 14 11 11 10 7 13 19 9 6 6 9 10
58 55 52 48 45 46 40 36 34 34 38 32 28 24 21 19 17 17 18 16 15 12 13 12 11 10 18 19 10 9 11 7 11 14 12 12 13 10 8 12 11 5 5 9 9
59 57 54 49 47 46 41 38 37 41 35 33 27 23 22 19 17 17 17 18 14 13 12 16 14 11 20 20 17 12 11 11 10 12 13 16 17 9 12 8 7 9 10 11 11
62 57 51 48 51 48 46 44 43 37 37 33 32 31 22 22 16 16 18 19 18 16 14 17 12 16 22 19 20 18 13 14 15 13 16 19 17 12 18 13 13 13 12 13 12
65 61 56 51 53 50 50 46 41 38 39 39 34 32 26 21 19 19 17 18 17 19 20 18 14 15 21 20 18 17 15 15 16 17 18 19 20 19 15 17 17 14 11 13 10
66 62 57 55 54 51 52 46 43 41 40 40 38 34 28 25 22 19 14 14 14 18 23 23 20 19 20 20 18 17 21 20 18 20 19 20 17 12 15 19 18 15 13 11 8
70 67 61 59 59 58 50 46 46 44 44 42 42 37 31 28 23 19 14 13 20 23 25 28 28 23 24 23 17 23 18 22 17 20 17 19 17 17 18 19 18 18 16 15 13
75 71 65 65 65 55 47 47 49 45 46 46 45 40 30 29 25 20 14 14 19 23 30 29 29 31 26 24 23 23 21 24 21 22 20 21 18 18 19 19 21 21 22 21 20
79 75 71 69 65 53 49 47 52 46 47 46 43 42 39 32 28 18 16 18 24 27 30 30 33 30 30 30 26 21 15 23 25 23 26 24 17 18 21 25 25 26 28 26 26
84 82 77 76 63 59 53 50 51 46 48 48 45 44 41 32 26 20 20 20 25 28 26 27 30 32 25 19 20 18 17 24 25 25 28 23 20 21 24 28 30 32 29 27 22
91 86 78 75 67 61 58 54 51 56 54 47 44 43 40 32 27 23 22 22 22 27 28 25 24 25 22 23 22 24 26 25 26 24 24 24 24 23 24 27 31 29 26 26 24
93 86 81 71 66 63 62 56 53 50 60 55 48 45 41 35 28 25 24 26 24 27 28 26 25 27 29 23 21 23 28 31 30 25 26 30 30 30 27 27 29 26 24 25 25
94 87 80 74 71 70 59 56 54 48 53 53 48 44 41 35 30 29 30 29 27 28 30 27 28 28 28 28 28 29 24 28 29 30 29 32 33 33 29 27 26 25 23 25 27

GFSSW_500_spd_054.txt.gz
Wind_Speed
47 45 43 41 40 40 38 36 36 34 31 30 29 30 30 30 31 34 37 38 41 44 40 28 21 23 19 14 10 12 14 12 16 22 23 19 8 6 10 11 15 16 19 19 30
46 45 44 43 42 41 39 38 36 35 32 31 30 30 30 29 30 34 36 37 41 41 35 24 19 21 17 13 9 12 16 14 21 24 14 13 14 5 7 13 14 19 17 16 20
46 45 45 43 42 42 39 39 37 35 34 32 31 30 31 29 30 33 35 37 40 38 29 23 21 21 19 14 11 16 18 19 16 18 15 14 17 14 12 15 17 20 20 18 16
46 46 45 43 42 40 39 40 38 36 35 33 31 31 31 30 30 33 34 36 38 34 26 23 23 19 17 15 11 15 21 20 13 16 12 15 15 12 14 18 22 20 20 19 17
47 47 45 42 40 41 40 39 39 37 35 33 31 31 30 29 30 33 33 36 35 31 23 22 14 11 11 12 9 9 22 22 16 14 15 18 16 10 15 19 22 20 15 12 14
55 49 49 42 41 43 41 41 40 38 35 32 30 31 30 28 28 30 32 34 34 28 20 18 11 13 9 11 10 8 11 23 26 16 11 13 15 17 18 19 20 7 8 7 7
50 47 57 45 42 43 41 41 42 39 35 31 30 29 31 26 29 29 31 33 33 25 16 14 10 15 10 9 9 11 12 14 25 19 15 18 17 16 15 13 7 8 9 12 9
50 47 44 51 45 45 41 41 42 38 34 30 29 28 31 25 29 27 30 32 30 20 13 13 11 11 11 10 7 13 12 10 12 20 11 14 15 15 11 6 5 4 5 10 18
52 48 45 43 47 49 46 45 42 37 32 29 28 28 30 25 28 27 28 30 27 18 13 14 12 12 12 10 12 13 18 9 7 13 16 17 4 11 11 8 2 3 4 9 14
53 50 47 46 44 45 44 44 40 36 33 29 28 29 28 25 26 27 25 27 26 20 14 15 14 9 10 9 11 13 14 8 7 10 14 17 13 11 11 5 4 4 4 4 9
54 52 49 46 43 41 39 37 41 39 33 28 29 30 28 26 26 25 24 24 23 17 14 12 14 10 10 9 12 12 7 10 8 12 14 16 16 16 15 11 5 6 5 6 7
53 51 50 48 46 42 41 41 34 41 34 30 30 27 30 26 26 22 22 20 19 13 11 9 10 9 5 7 8 10 10 13 12 11 17 15 12 15 14 13 10 8 5 3 6
56 52 50 48 47 44 42 40 38 34 35 30 31 27 33 25 26 21 20 18 16 12 9 8 6 7 3 8 10 10 14 15 14 12 14 11 4 11 10 10 13 12 10 6 6
59 56 52 50 46 44 43 38 37 35 36 31 34 29 31 24 25 23 19 16 15 12 8 10 6 7 7 9 11 12 11 10 13 14 14 20 11 8 11 9 9 9 9 8 9
61 58 54 52 46 45 43 38 35 33 35 31 37 30 28 25 25 20 20 17 16 14 12 13 10 10 10 13 12 7 8 12 15 18 15 13 11 10 11 11 13 9 11 14 15
60 59 56 52 47 47 43 39 36 33 33 30 34 32 28 28 27 23 18 16 18 15 16 16 13 12 10 17 15 8 6 12 12 14 14 12 6 5 6 8 15 14 14 17 18
61 58 57 52 45 49 45 42 40 36 32 33 29 29 28 29 27 25 19 16 15 15 13 18 14 13 16 19 16 11 11 14 14 14 14 14 11 4 9 11 6 15 19 13 18
64 61 57 54 50 51 48 46 43 38 35 34 34 33 31 30 29 25 20 16 16 17 17 20 17 18 17 20 22 21 15 14 15 15 16 18 13 10 10 14 14 13 14 14 13
69 65 60 55 55 55 53 50 44 38 37 38 38 35 35 34 29 26 20 15 16 16 16 19 17 20 20 23 23 21 19 16 17 19 20 19 19 15 15 17 16 12 12 14 15
73 69 63 57 58 61 59 50 46 39 39 40 38 40 32 35 33 27 21 15 14 16 18 18 21 17 22 27 26 19 18 19 20 23 22 17 16 16 13 11 15 13 14 18 18
79 75 66 62 63 65 57 52 48 45 43 43 43 39 37 33 33 29 21 15 16 18 21 19 24 22 24 26 25 26 24 22 18 21 21 14 12 16 15 16 17 19 21 20 19
84 79 71 69 72 64 54 52 50 47 46 45 45 43 36 40 38 33 24 17 17 19 21 21 24 26 26 28 28 29 29 27 21 21 21 21 9 16 19 18 19 20 21 20 20
90 83 78 75 75 62 56 52 51 50 50 47 47 46 43 40 39 33 24 20 20 19 18 20 23 26 28 33 31 30 26 26 28 26 20 21 12 16 19 20 23 27 28 28 24
94 91 85 82 69 65 60 52 51 48 52 52 49 46 45 43 39 32 24 24 21 19 20 23 25 26 28 27 24 30 27 29 29 24 18 16 17 18 22 23 26 29 31 29 27
99 96 86 85 74 64 62 54 54 49 55 54 52 48 46 43 40 32 25 22 23 23 25 25 27 26 24 26 27 27 25 25 27 26 25 15 21 20 21 24 27 30 28 25 22
100 96 90 80 73 70 67 58 56 53 57 56 53 46 45 43 39 32 30 27 26 25 28 26 26 23 24 26 30 29 25 25 26 29 28 25 25 25 26 26 26 29 29 28 26
98 94 90 83 78 75 64 61 57 52 52 57 46 42 45 38 37 37 34 32 28 28 29 27 27 24 26 27 29 32 22 26 26 27 28 25 25 29 29 30 30 30 30 29 30

GFSSW_500_spd_057.txt.gz
Wind_Speed
42 41 42 41 41 40 37 36 35 34 36 36 35 33 33 33 34 35 36 36 38 41 44 44 36 24 21 21 17 11 5 14 10 12 17 20 10 6 3 9 8 13 15 16 19
45 42 41 40 40 40 40 38 36 34 37 35 35 34 33 33 34 34 37 37 37 40 42 43 29 24 24 21 17 10 10 15 11 15 22 17 19 7 4 2 7 10 12 16 14
47 45 41 41 39 39 41 38 38 36 36 34 34 34 34 33 33 34 36 36 36 39 40 39 25 24 18 16 15 8 12 13 9 13 15 11 7 11 7 7 12 15 15 18 19
45 44 43 41 39 38 39 40 37 36 35 35 33 33 33 33 32 34 36 34 35 37 39 33 23 21 12 9 9 7 12 14 9 10 6 6 7 8 5 11 14 15 19 21 21
48 45 46 45 47 41 39 40 37 34 34 35 33 32 33 33 31 33 35 33 34 35 35 27 19 16 19 9 11 3 13 18 17 8 5 8 11 13 12 14 19 22 22 20 18
47 48 46 48 50 45 42 41 40 38 36 35 32 32 33 33 30 32 33 31 32 33 32 21 16 13 15 13 9 2 3 7 14 14 4 2 9 9 11 13 16 21 23 17 10
49 48 47 44 46 46 47 50 47 37 39 34 32 32 31 31 30 31 31 30 29 31 28 17 13 12 9 12 6 7 4 5 4 10 14 12 13 12 10 10 12 14 12 6 2
54 50 47 45 45 43 42 40 44 41 38 34 31 30 29 29 30 31 29 28 27 29 26 14 13 14 9 9 7 9 4 5 5 7 9 6 11 11 10 6 6 2 5 8 13
57 55 53 52 47 45 39 39 41 41 40 37 31 30 29 27 29 30 27 26 25 28 22 12 13 11 10 10 10 11 8 7 7 11 11 10 11 3 11 9 6 4 2 3 10
58 58 54 52 49 45 43 41 37 40 39 40 35 32 29 27 30 28 26 25 24 25 20 12 12 9 8 10 9 7 6 1 5 7 8 9 12 15 16 10 7 7 7 8 7
58 56 55 52 50 48 42 43 36 38 36 37 32 33 31 29 30 27 25 22 24 24 19 13 11 11 5 8 8 7 7 6 8 7 9 11 13 17 16 12 10 8 10 9 9
59 56 54 51 51 48 44 41 39 34 31 30 34 34 34 32 29 27 25 21 23 21 17 13 9 8 4 7 7 10 8 9 8 9 12 15 15 13 16 13 11 8 10 9 9
57 57 57 52 50 48 43 41 39 36 34 30 32 37 36 35 29 26 23 21 21 18 15 11 6 8 4 2 5 7 10 9 9 6 12 15 8 10 7 9 11 10 7 6 8
59 57 57 56 53 48 44 40 38 38 39 26 34 30 32 34 28 28 23 20 20 17 14 10 10 7 5 5 8 8 10 10 7 10 14 15 10 11 14 11 9 7 6 6 8
62 60 56 55 54 50 48 43 38 36 39 30 31 36 32 33 26 24 24 21 19 18 15 11 12 10 8 9 10 8 6 8 10 10 11 10 16 12 11 12 13 10 9 9 11
66 63 60 54 53 53 49 44 40 37 38 30 28 31 34 33 30 28 27 22 21 17 16 12 12 13 10 10 13 9 10 9 11 9 11 10 10 9 13 13 15 18 14 17 21
69 66 63 56 50 55 51 46 44 43 34 33 28 29 34 33 32 30 26 22 18 14 13 13 13 14 11 11 17 15 13 10 9 10 9 11 9 8 10 11 12 16 18 18 18
74 70 66 59 52 56 53 50 49 43 36 33 30 30 28 33 34 29 27 24 20 14 15 14 15 17 14 15 20 21 15 11 11 11 10 11 11 12 13 11 11 12 10 15 16
79 75 70 63 57 58 58 56 50 43 39 37 35 30 31 32 33 30 27 21 18 15 13 13 15 17 17 17 22 23 19 17 16 14 14 14 12 14 17 13 15 14 13 11 10
83 81 74 66 61 61 61 57 50 44 42 41 37 37 31 34 31 29 27 23 19 14 14 16 19 19 21 22 24 26 23 20 19 19 18 12 13 7 15 11 9 15 15 14 16
87 86 78 72 67 68 64 57 51 48 46 43 42 38 40 36 31 31 27 22 20 18 16 17 15 18 23 20 25 29 27 24 23 20 16 16 9 9 9 11 13 15 15 16 16
86 89 83 79 76 72 64 57 52 49 49 46 43 42 37 39 38 32 30 25 23 19 16 17 17 17 20 21 22 26 27 30 28 24 21 20 13 15 7 12 15 17 17 20 20
78 89 88 83 82 71 63 63 55 51 51 48 46 44 41 38 38 36 30 29 27 24 19 19 18 17 23 24 28 26 28 28 27 29 29 25 18 12 16 16 19 19 22 22 22
61 86 92 87 79 72 69 66 58 52 51 52 49 46 43 40 39 39 35 30 29 27 25 25 22 17 14 16 23 26 23 26 30 30 28 23 14 13 17 17 20 21 22 24 25
57 73 92 91 87 74 71 68 63 54 51 52 51 48 45 42 41 38 34 34 33 31 30 28 23 17 13 15 22 25 26 27 27 26 28 25 24 16 17 18 22 22 22 23 23
53 59 85 87 80 82 77 70 65 57 50 53 52 49 45 43 42 40 35 34 34 33 33 28 23 19 17 16 20 24 24 28 27 27 28 30 29 23 23 23 24 24 26 27 27
48 40 63 88 87 84 76 72 67 60 53 51 49 46 47 39 41 41 37 37 37 35 34 30 27 21 20 18 20 21 18 22 24 27 28 28 25 25 25 26 26 26 28 30 30

GFSSW_500_spd_060.txt.gz
Wind_Speed
38 38 41 42 41 39 37 36 35 34 34 34 33 32 33 35 35 33 35 35 35 38 41 41 42 39 33 24 15 15 5 9 15 10 10 15 18 13 10 6 10 5 9 9 11
40 41 41 43 43 40 38 36 34 34 34 34 34 33 33 33 33 33 34 35 34 36 39 39 39 36 28 19 10 12 6 12 12 9 10 12 15 18 7 8 1 8 7 7 9
42 41 40 40 42 41 38 37 36 35 34 33 33 31 32 32 31 33 32 33 33 35 37 35 37 32 23 13 9 7 6 10 11 8 10 10 8 9 7 6 4 5 11 12 13
46 45 42 40 40 42 41 37 36 35 34 32 33 31 32 31 31 32 32 31 31 34 35 33 33 26 18 11 7 4 7 11 8 6 6 3 5 6 8 4 6 8 11 15 17
47 48 45 42 40 41 42 42 39 39 36 32 30 30 31 29 31 32 31 30 30 32 33 31 30 22 14 11 5 3 5 12 17 7 5 3 3 6 10 10 13 15 16 16 16
51 49 47 43 41 42 42 43 41 36 37 35 34 33 30 30 31 32 30 30 29 30 31 29 27 19 12 10 4 4 3 4 9 12 9 5 4 8 11 13 16 14 16 16 20
51 50 49 46 43 43 42 39 40 38 36 38 41 35 31 32 31 30 28 29 27 28 29 27 23 16 14 9 5 3 6 4 3 6 10 8 9 10 11 14 13 15 12 13 11
53 51 50 50 46 44 42 40 38 37 35 35 40 36 29 32 31 28 27 28 25 27 27 25 21 15 15 11 5 3 7 5 7 7 9 7 6 8 12 11 11 6 5 5 4
56 55 52 51 48 47 44 42 43 39 34 36 32 35 31 31 30 27 27 26 24 25 25 22 20 14 15 10 6 5 4 5 7 9 12 12 9 11 9 10 7 2 1 1 7
54 54 55 54 53 52 49 45 44 44 38 33 32 36 34 33 31 29 26 24 23 24 24 20 15 12 11 7 7 7 8 6 8 7 4 7 7 12 13 13 10 7 6 4 6
53 54 53 53 53 54 52 48 44 43 36 36 32 35 32 33 32 30 27 24 23 24 23 17 13 12 9 5 6 8 7 5 7 4 8 9 11 17 13 13 10 8 5 6 4
55 53 53 54 52 51 50 48 47 41 37 36 33 31 33 33 32 30 29 24 22 23 21 15 10 7 3 1 5 7 5 7 7 6 10 12 11 16 15 13 9 7 8 8 7
60 57 55 52 53 52 50 49 47 42 39 34 35 32 31 34 33 32 30 24 22 22 21 14 11 6 2 2 5 8 10 9 10 8 11 12 10 9 10 6 8 8 7 6 8
64 62 59 56 53 52 51 48 47 44 39 34 39 36 36 34 35 36 32 26 23 20 21 15 11 8 5 4 6 6 10 9 8 7 6 9 7 7 12 10 8 8 7 7 8
68 66 62 59 56 52 50 51 47 44 42 36 37 38 33 37 28 32 27 27 22 21 19 13 11 10 9 9 8 10 9 8 7 9 7 7 11 9 10 13 12 9 9 9 9
73 70 66 62 58 56 52 50 48 46 47 37 34 35 34 34 32 31 31 27 25 24 20 17 12 9 12 9 9 11 13 10 7 9 12 10 10 9 13 15 14 15 13 12 13
77 74 70 65 59 60 56 53 51 51 45 43 34 31 33 33 36 35 31 27 25 21 16 15 14 10 14 13 11 16 14 7 6 8 9 10 9 10 12 13 18 19 21 19 20
77 78 75 69 64 62 58 57 57 52 45 44 39 35 33 31 36 38 34 32 29 23 21 16 15 11 14 15 12 17 19 14 8 7 8 7 6 10 15 15 16 19 22 22 22
78 80 78 74 70 66 63 63 57 53 46 43 42 30 38 31 35 37 34 29 26 23 20 17 17 12 15 18 16 22 22 18 13 11 11 11 10 13 17 16 16 16 20 18 16
76 80 81 78 75 70 68 63 59 55 46 45 43 41 29 33 34 34 33 31 28 26 25 20 20 17 16 20 20 22 24 22 22 19 15 15 11 10 16 16 16 16 19 21 16
62 77 80 79 78 77 74 61 62 60 49 46 47 41 38 32 31 28 28 27 28 26 25 22 21 19 17 17 21 23 27 27 26 23 19 17 12 11 14 14 16 15 17 20 19
58 70 77 83 82 83 75 63 62 62 52 48 49 47 40 41 31 31 29 25 27 27 25 22 23 20 18 18 21 24 27 30 28 26 22 24 17 16 18 17 16 16 16 18 21
58 59 68 78 86 83 72 69 66 64 55 49 49 47 46 40 41 36 30 31 30 29 29 25 26 24 22 20 21 23 23 25 27 25 23 27 24 27 21 23 20 19 20 18 19
66 63 61 68 82 79 80 74 69 66 57 51 51 50 47 46 41 37 36 33 35 34 32 30 29 25 21 17 19 23 25 25 25 28 22 24 23 22 20 22 23 23 21 21 22
70 65 48 63 83 85 81 74 74 70 59 55 53 52 49 47 44 36 36 37 37 37 36 36 35 25 20 19 24 23 23 26 30 27 28 21 24 24 21 24 25 25 23 23 23
66 62 51 40 55 83 84 83 76 71 60 57 54 52 51 48 41 38 36 36 40 37 38 37 35 28 24 22 22 22 21 26 26 28 27 26 24 27 24 28 27 26 26 25 25
62 58 54 45 51 74 88 80 77 74 62 60 54 51 52 51 39 41 40 40 40 39 39 39 37 31 27 24 23 17 14 19 20 21 21 24 23 26 26 24 27 26 25 26 28

GFSSW_500_spd_063.txt.gz
Wind_Speed
41 39 37 37 37 36 37 36 37 35 33 34 31 31 32 32 33 32 32 31 34 35 34 34 36 38 38 38 31 17 6 6 9 10 16 12 19 23 23 10 10 5 8 11 13
42 44 41 39 39 37 37 37 38 36 34 32 34 31 31 31 32 31 31 30 33 34 33 32 34 35 36 35 25 13 2 9 18 14 13 11 23 24 8 11 11 0 2 6 12
49 47 45 42 40 38 37 37 37 36 35 32 33 32 32 31 31 29 31 29 31 32 30 31 31 32 32 30 20 11 6 11 11 12 10 12 12 10 7 12 4 2 4 5 9
52 50 48 47 45 42 39 37 37 37 35 35 33 33 30 31 31 27 29 28 30 30 28 29 28 28 27 21 18 11 9 10 8 12 7 7 10 11 10 11 8 8 11 12 14
53 53 50 47 45 44 42 39 37 36 35 36 35 35 33 30 31 26 26 29 30 29 26 27 25 25 21 15 15 12 10 11 13 10 7 10 11 11 14 13 13 13 15 17 16
52 52 52 52 51 48 44 41 38 36 34 34 35 32 34 28 35 31 27 30 28 27 25 24 23 22 18 14 14 12 11 8 10 14 14 10 8 8 14 15 15 14 17 18 16
54 52 49 49 49 50 48 44 41 38 34 32 32 35 36 30 38 33 30 29 27 24 23 22 21 22 19 16 12 10 8 7 14 10 16 19 10 17 11 15 15 16 19 16 12
54 54 53 50 47 47 48 46 44 41 36 33 34 33 29 38 36 30 27 29 26 23 22 21 20 20 17 14 11 8 5 5 21 10 16 18 18 3 10 13 14 12 10 10 8
49 48 51 51 50 48 48 46 46 43 39 37 35 33 31 31 35 29 28 29 24 22 22 20 18 17 16 13 9 9 6 14 15 13 14 10 16 9 15 14 13 9 6 7 7
53 50 48 48 50 49 49 48 48 45 41 41 39 36 36 30 29 30 30 29 24 21 21 19 16 15 12 11 4 9 12 11 10 17 11 7 6 18 17 17 13 10 6 0 2
58 55 52 50 48 47 47 50 52 50 47 43 43 35 35 32 32 32 32 32 25 21 19 18 15 13 7 11 8 15 13 9 11 17 18 10 2 10 23 19 15 13 8 6 4
61 60 56 54 51 48 46 49 52 50 49 45 42 38 36 34 33 35 32 31 25 21 21 18 13 10 6 4 6 10 7 8 13 13 12 10 6 18 13 17 13 12 7 5 4
66 62 61 58 54 51 48 49 50 50 49 43 40 39 37 38 33 34 34 30 23 24 20 17 14 10 7 6 7 12 10 17 16 4 7 6 6 13 18 18 7 11 8 3 7
73 67 64 60 59 55 53 50 49 49 49 47 38 40 41 39 36 31 29 30 30 24 21 17 14 12 10 9 9 5 9 15 14 12 13 15 18 15 14 6 4 4 5 6 7
74 71 69 65 62 56 57 53 51 49 47 47 42 41 40 42 32 34 33 37 30 24 26 15 16 13 12 12 13 9 16 12 11 9 9 4 9 12 5 9 10 9 8 9 7
66 69 69 69 66 62 58 58 54 50 48 46 45 39 42 40 43 34 36 36 35 27 27 23 18 15 11 15 13 13 8 9 8 8 7 9 8 7 10 7 11 14 13 12 9
64 67 68 68 68 66 63 61 58 57 46 48 46 37 40 37 43 40 36 37 34 31 23 24 16 16 12 14 16 14 13 6 9 12 8 14 12 13 10 15 17 17 17 18 15
46 66 69 70 71 71 69 67 66 53 52 50 45 42 39 35 39 42 38 40 35 31 27 23 21 17 11 14 15 15 16 9 8 8 16 10 6 11 19 19 17 16 18 20 22
48 45 65 70 71 74 73 75 60 55 56 53 47 42 40 42 38 38 39 41 33 29 30 27 21 20 17 16 19 15 20 19 16 18 13 10 8 11 20 18 20 20 21 24 23
50 48 45 64 69 74 77 77 61 57 57 55 50 42 44 40 45 41 40 44 39 33 29 28 22 23 18 19 21 21 19 21 23 16 13 12 12 15 15 17 16 20 23 22 25
52 51 44 50 63 76 84 67 64 63 61 62 50 44 45 45 37 40 38 37 39 36 35 33 28 31 24 19 17 23 24 22 20 20 17 14 12 12 15 13 16 19 21 23 25
53 49 51 53 58 70 82 69 68 67 65 63 55 48 47 47 39 37 36 34 32 35 39 34 32 29 22 19 21 18 23 24 26 23 26 25 19 19 19 19 20 18 20 21 21
58 55 56 59 56 64 75 75 76 74 68 65 55 52 46 47 47 33 35 33 38 39 39 38 38 31 22 25 22 22 21 22 25 25 27 25 20 12 22 23 25 17 22 22 23
64 63 60 61 54 46 65 82 81 75 71 66 60 53 48 48 48 44 30 39 32 36 36 37 37 36 28 18 18 19 23 24 25 28 26 26 18 20 21 20 22 21 23 25 24
70 69 61 58 51 38 57 76 81 78 71 69 64 53 50 49 52 42 35 39 32 39 37 42 40 35 31 25 21 19 22 24 26 27 28 24 22 20 22 25 19 28 28 25 28
73 68 60 58 59 51 49 69 81 77 72 72 65 55 51 49 51 42 41 38 37 37 40 39 41 37 34 33 28 28 25 24 23 24 27 26 25 24 28 24 24 28 32 32 27
68 65 61 63 60 61 48 57 73 76 75 72 65 55 55 50 51 51 44 42 45 41 41 43 43 38 37 31 30 34 25 24 24 25 23 26 23 18 24 28 27 26 28 32 31

GFSSW_500_spd_066.txt.gz
Wind_Speed
41 40 39 37 36 34 34 35 34 35 32 33 34 34 31 31 34 33 30 28 27 28 30 30 31 30 31 32 34 27 9 7 13 15 23 27 25 21 14 21 33 20 21 14 14
46 43 42 40 39 38 38 36 35 34 32 31 32 34 33 32 35 33 31 28 26 27 29 29 30 29 29 32 31 24 8 4 14 16 24 28 19 24 19 16 22 20 8 6 4
47 46 46 46 45 42 41 41 38 34 32 31 30 32 33 33 34 31 32 30 27 26 28 28 28 27 27 29 26 21 5 9 14 16 18 22 17 26 26 16 22 7 4 8 8
48 48 47 47 47 47 45 43 42 40 38 34 31 31 32 32 33 32 31 28 26 25 26 27 25 24 24 24 19 19 15 14 16 16 17 15 16 22 24 15 15 12 10 11 18
48 48 48 48 48 49 46 44 43 43 39 38 33 30 31 32 33 34 32 26 27 26 26 26 23 22 20 22 13 16 16 13 13 16 14 19 17 14 20 20 16 12 13 17 18
50 49 50 49 48 48 49 47 45 43 40 38 35 33 30 27 35 31 33 29 30 27 26 24 21 20 17 18 16 14 17 14 9 6 15 14 13 17 27 9 12 17 16 18 19
48 49 50 51 51 50 49 47 45 45 44 41 38 35 31 21 33 31 33 34 27 28 25 23 19 18 15 17 16 15 15 10 6 12 17 17 20 21 19 20 9 11 15 15 13
48 47 46 47 49 51 50 49 47 43 42 41 40 39 31 28 32 29 29 33 25 25 24 22 19 16 15 16 16 13 13 9 10 14 14 22 19 23 26 12 10 15 14 14 14
50 49 48 47 46 47 49 50 49 47 43 42 43 40 32 30 31 31 29 28 26 24 22 21 18 15 13 16 11 11 13 11 15 18 8 21 20 13 17 7 12 17 13 14 9
54 53 51 50 48 46 46 46 47 49 49 45 43 39 38 33 33 34 32 27 26 27 21 20 19 15 12 12 7 3 19 9 17 14 21 17 24 23 19 23 19 19 10 9 12
57 57 56 53 51 49 47 47 47 47 47 46 47 42 42 39 33 34 34 31 29 29 23 20 19 14 11 10 10 13 23 7 15 22 18 19 14 17 7 5 18 20 13 5 6
66 63 60 56 53 52 51 49 52 47 46 45 48 46 39 44 38 34 38 33 31 26 26 24 17 14 11 3 10 9 11 15 12 20 16 11 12 18 15 15 20 18 10 8 4
69 67 65 63 58 56 54 52 54 50 47 43 44 46 37 44 39 37 39 33 32 33 29 23 16 15 10 8 10 8 9 16 17 21 16 8 2 13 16 16 10 8 4 4 4
74 72 69 65 63 61 58 56 55 54 52 42 43 42 41 40 41 36 37 35 36 33 28 22 19 16 10 10 11 8 8 15 14 12 8 18 19 16 18 9 3 6 5 3 3
76 73 71 67 64 62 64 60 57 55 53 44 47 42 42 42 35 34 34 39 33 25 29 21 21 18 14 11 16 11 11 19 16 18 14 14 12 4 7 5 9 7 9 4 4
59 63 67 65 59 63 64 63 59 57 53 49 46 41 40 42 39 36 39 35 30 34 34 26 25 23 16 16 16 14 13 15 14 12 10 6 14 9 16 12 11 18 12 10 7
44 43 51 59 60 66 66 66 64 64 49 50 49 46 38 40 37 40 41 40 39 37 36 33 31 25 20 18 18 17 13 14 14 10 1 10 8 16 15 14 8 14 22 15 10
43 42 37 45 62 65 67 68 71 59 53 52 52 53 46 38 36 38 41 41 43 39 33 31 29 23 20 18 17 17 16 18 16 16 15 12 9 10 12 9 10 17 17 19 20
43 44 41 35 39 55 63 70 71 53 55 53 54 55 51 34 40 35 39 39 40 42 41 31 26 24 23 21 22 14 21 12 24 16 11 3 5 11 18 16 16 14 19 20 20
40 39 43 42 43 41 55 70 63 59 59 42 48 56 48 39 38 41 39 39 35 44 41 32 26 25 21 24 24 24 18 23 25 19 11 8 10 19 18 22 16 19 16 19 22
47 45 39 44 47 50 42 61 60 65 63 51 55 52 48 37 40 40 43 36 38 40 40 31 23 25 27 27 23 23 24 25 24 24 23 18 16 24 14 16 12 16 18 16 17
56 52 46 46 50 48 35 17 53 67 64 63 62 56 47 39 35 42 39 42 42 39 46 40 30 31 34 28 22 24 23 28 31 24 20 22 18 16 14 11 19 22 20 20 18
61 59 54 53 49 40 36 31 38 62 64 61 65 60 54 45 41 45 42 33 38 36 43 44 34 36 32 34 30 29 26 25 28 28 26 29 23 23 23 17 22 24 26 26 17
63 65 61 59 51 42 38 39 40 48 63 63 63 47 40 45 48 29 41 35 34 28 37 44 43 38 39 28 24 27 24 28 17 24 26 32 28 21 20 21 22 24 27 29 25
68 69 63 62 54 49 47 46 49 42 56 64 65 62 44 47 38 50 37 40 36 38 40 43 46 41 40 30 23 21 24 27 30 31 29 23 26 20 13 26 22 26 30 30 27
73 68 64 61 56 52 49 46 45 42 49 62 67 56 42 36 40 39 34 46 41 39 38 42 45 44 39 37 33 30 23 25 27 28 25 22 23 18 24 28 31 32 37 33 37
73 66 66 62 62 59 52 46 42 44 38 55 64 64 47 36 37 36 47 50 45 43 41 40 38 45 48 41 42 39 32 31 29 23 21 23 23 26 25 28 34 35 36 25 31

GFSSW_500_spd_069.txt.gz
Wind_Speed
42 43 41 38 36 34 33 31 30 29 29 29 30 30 28 27 30 29 28 29 29 27 27 26 27 27 26 25 25 26 28 20 12 7 14 21 26 25 26 24 21 24 25 26 15
44 42 41 40 39 38 36 34 33 32 31 30 32 31 28 28 31 28 27 29 28 27 27 27 26 25 26 24 21 22 23 16 13 7 17 21 25 25 27 20 20 19 21 8 10
43 43 43 41 41 41 40 39 38 37 36 34 32 31 31 30 31 28 27 28 28 27 26 25 24 24 25 24 24 24 19 17 15 12 17 25 17 23 28 19 14 13 8 10 8
42 41 41 42 43 42 42 41 41 40 39 38 35 36 34 34 29 32 26 28 28 26 24 23 24 25 23 23 22 23 22 18 13 16 21 23 19 23 27 30 25 19 9 15 15
47 44 42 42 42 42 42 42 41 42 41 39 38 37 34 34 22 38 27 27 25 24 27 25 23 23 20 21 19 22 20 14 11 14 13 7 17 21 22 26 27 17 15 12 18
46 47 46 43 44 44 43 43 41 40 41 40 41 39 35 28 31 32 28 28 27 25 27 26 24 22 18 20 18 20 20 12 10 6 5 5 13 16 20 23 24 19 14 9 14
45 45 45 44 45 44 45 45 43 43 43 41 40 39 39 26 33 33 26 26 25 26 26 23 20 21 20 18 18 19 16 10 5 4 12 13 14 20 17 21 31 11 10 12 16
47 47 47 44 44 44 44 45 45 46 45 43 43 41 36 32 34 31 32 27 26 25 25 21 20 18 18 16 16 14 7 10 6 9 15 18 17 17 18 23 18 9 8 10 13
48 48 48 47 48 46 45 45 44 44 45 44 44 42 35 33 35 32 33 29 29 26 22 24 19 18 20 14 13 13 5 10 9 7 16 15 20 21 26 18 15 7 5 8 11
50 50 50 49 48 47 46 46 47 45 46 45 43 40 40 37 34 34 34 34 32 29 24 24 21 18 16 15 10 12 8 15 15 14 19 16 21 18 22 19 13 13 7 6 3
53 52 50 51 50 49 48 47 49 50 46 44 43 39 39 41 39 33 36 38 35 29 25 26 27 16 16 16 13 9 6 11 11 15 20 18 19 14 14 13 19 17 12 9 2
56 55 55 55 54 53 52 51 52 53 49 47 44 41 39 42 41 39 39 39 38 28 31 32 21 17 19 19 18 8 3 5 20 14 14 9 14 11 10 18 14 15 8 5 4
60 58 58 58 56 55 56 55 57 57 52 48 47 43 40 43 40 39 42 40 39 35 32 34 16 25 19 19 17 5 10 16 22 20 17 18 6 15 12 14 17 13 14 8 4
62 61 61 60 58 57 58 57 60 59 56 47 46 43 43 45 40 39 41 38 39 36 30 35 28 33 22 21 15 9 12 19 21 20 23 21 12 16 20 7 6 9 7 4 7
64 63 64 62 62 59 56 57 60 58 58 49 50 46 46 45 42 37 36 38 38 32 34 29 31 32 20 18 16 12 17 15 17 14 17 17 15 9 9 3 4 4 5 7 4
61 59 61 61 57 55 55 58 62 62 57 52 49 46 49 45 43 44 39 38 33 39 39 33 25 29 23 19 20 17 22 15 17 15 16 10 18 11 7 6 8 11 6 11 8
46 44 45 44 38 48 53 60 64 68 50 47 49 49 49 48 40 39 42 44 41 39 35 29 33 33 30 26 25 23 20 17 15 16 11 19 15 7 10 6 8 5 8 13 16
40 40 40 38 40 41 41 51 65 61 51 44 48 53 51 49 45 42 39 42 43 41 35 34 36 33 31 27 25 22 18 20 17 15 17 15 7 11 8 2 6 11 11 15 14
34 35 36 34 39 39 41 47 57 53 51 49 38 53 54 52 49 42 43 38 38 39 39 37 37 27 32 25 28 24 23 11 23 17 19 14 13 8 12 12 12 9 13 15 16
35 36 32 32 38 39 39 25 19 37 54 51 37 43 45 47 38 33 32 39 37 36 37 39 41 32 29 29 28 29 23 20 23 20 19 13 14 16 18 21 16 13 13 13 14
39 40 33 35 37 34 33 27 25 17 45 47 50 45 41 29 23 28 36 37 38 29 34 39 40 36 34 37 29 31 29 29 26 25 25 14 18 19 21 22 14 12 11 9 11
46 42 40 40 40 32 28 26 25 29 27 47 45 59 49 39 34 25 27 31 37 35 37 26 24 44 42 34 29 25 31 30 30 27 26 24 21 20 20 15 17 17 17 19 15
50 48 45 43 41 35 30 28 25 32 25 39 53 47 50 47 39 28 26 28 33 37 42 25 32 42 41 37 33 34 29 27 32 30 31 27 25 24 19 19 24 23 24 28 23
55 55 52 49 41 38 40 37 32 29 29 26 53 53 50 48 52 41 37 27 32 36 32 28 33 45 43 42 38 33 31 31 34 38 36 32 28 30 21 20 20 25 25 29 30
58 58 52 51 43 46 45 40 37 33 31 26 48 62 55 45 41 42 24 32 28 38 38 33 32 49 50 32 42 34 29 29 32 30 28 21 25 25 27 26 27 26 22 28 27
60 59 56 53 53 49 45 39 36 33 34 30 26 54 66 65 46 42 40 34 41 39 37 37 36 54 49 44 24 32 31 25 25 28 29 28 28 23 16 26 29 28 33 27 30
67 58 58 55 56 52 44 40 39 41 36 26 28 39 57 56 40 33 48 42 34 34 36 31 28 57 53 39 42 43 37 29 29 24 27 31 28 22 22 28 29 34 38 36 30

GFSSW_500_spd_072.txt.gz
Wind_Speed
45 43 41 39 39 39 39 35 33 31 30 28 25 25 25 23 26 26 23 24 25 24 27 27 26 26 24 22 24 22 21 25 21 19 12 7 17 24 26 30 26 18 14 12 2
48 45 44 42 40 38 37 36 35 32 31 29 28 27 28 24 25 27 25 25 26 24 24 26 27 24 22 23 22 21 19 24 21 15 10 10 20 24 30 27 15 17 16 17 10
49 46 46 43 41 39 39 36 35 35 34 32 32 31 30 28 25 26 29 27 27 26 24 26 27 23 22 23 23 19 19 25 19 14 9 14 22 25 25 24 11 14 21 20 15
47 47 46 42 38 38 39 40 37 37 36 35 34 33 33 32 28 29 28 28 26 25 24 24 24 24 22 21 24 18 18 23 18 12 9 20 23 25 20 22 24 22 21 20 21
50 45 47 46 43 40 38 37 37 37 37 37 36 34 34 32 23 37 27 25 25 24 24 24 22 25 25 21 20 21 18 24 25 15 10 14 18 13 14 16 18 20 19 20 23
51 50 48 48 48 46 43 41 39 40 38 36 35 33 32 30 32 34 33 25 26 23 22 20 23 26 19 19 20 23 20 21 18 11 3 9 8 10 11 14 16 19 14 15 19
50 47 47 47 47 46 45 45 43 41 40 39 37 36 36 27 31 30 33 32 28 24 25 22 23 23 19 19 18 16 20 13 7 4 4 8 4 9 9 14 20 16 7 10 14
48 40 41 42 42 42 42 42 44 44 43 43 40 38 35 33 32 32 33 31 32 29 26 25 23 23 18 20 17 15 18 11 7 9 1 9 4 11 17 15 7 15 15 13 9
43 45 42 44 43 44 43 43 45 44 43 43 42 37 36 33 33 31 31 29 34 32 28 29 24 21 20 18 15 17 17 15 11 14 5 8 8 14 19 10 14 18 10 11 6
41 41 43 44 43 43 42 43 46 46 47 45 42 40 39 35 35 33 34 33 34 34 31 29 27 20 18 17 15 19 17 19 17 18 10 11 11 14 17 7 2 11 11 7 4
44 43 42 41 42 43 43 44 46 48 47 45 44 41 41 40 37 35 37 38 36 35 31 30 31 16 16 21 22 20 19 17 19 6 13 15 10 15 10 4 7 10 6 7 6
44 45 46 46 45 47 47 48 48 50 49 45 43 41 39 43 40 38 39 40 38 35 36 38 25 19 25 26 24 22 20 18 20 6 12 8 8 18 11 6 5 7 1 9 6
49 49 49 49 49 52 53 53 53 52 51 44 44 43 39 44 42 37 39 40 41 41 39 38 22 29 29 29 26 21 19 22 19 12 20 16 14 20 10 8 11 2 5 8 5
53 52 52 51 50 52 54 54 53 52 55 50 44 46 44 45 47 45 41 38 41 41 39 41 27 31 35 32 27 22 20 26 16 19 23 18 13 21 20 14 3 6 9 7 5
56 57 56 54 53 53 54 53 54 53 55 53 52 49 51 49 47 45 42 43 41 39 40 37 28 32 35 28 33 18 26 22 19 20 20 16 16 17 19 6 2 3 10 8 6
58 59 58 57 55 59 57 54 54 54 53 54 53 52 49 49 49 49 47 44 38 41 44 44 31 36 33 31 33 22 29 24 22 23 18 13 20 16 18 10 5 5 7 6 5
59 58 56 54 50 55 52 52 54 56 52 48 49 52 53 51 48 48 46 47 43 43 43 43 35 34 35 36 32 29 32 27 24 23 14 20 15 9 7 12 7 9 3 4 6
53 53 50 48 48 48 46 48 55 48 45 44 53 60 55 53 48 48 45 44 45 43 46 43 37 35 34 35 34 35 30 27 26 22 18 22 13 14 13 10 7 5 1 3 7
47 46 41 37 43 43 44 46 43 30 31 35 51 29 58 52 52 42 43 43 42 35 37 42 42 31 31 34 37 36 35 22 27 30 25 22 17 23 21 13 11 8 2 5 6
40 37 33 35 36 39 39 32 22 17 15 31 49 42 44 53 58 48 46 42 41 36 34 34 37 35 36 37 36 41 28 30 29 27 26 20 20 25 22 12 8 10 8 8 8
36 40 33 36 35 34 26 23 25 25 25 29 29 47 42 44 38 39 43 39 41 36 30 32 37 37 41 40 37 39 35 32 32 30 20 18 18 20 19 15 14 8 14 11 12
44 45 37 39 38 30 28 28 20 16 25 30 19 43 42 38 42 40 37 42 38 31 35 34 37 41 39 34 40 40 36 32 36 29 25 25 23 21 18 17 19 14 14 15 15
46 46 43 41 38 32 32 27 24 18 21 23 18 34 48 46 37 26 38 41 35 40 34 34 38 36 37 36 43 50 43 30 34 32 32 29 23 26 23 24 25 24 20 20 18
49 49 48 44 39 36 34 28 27 24 21 20 20 25 59 52 36 39 35 36 35 35 37 38 37 34 35 29 41 49 42 29 31 38 36 38 27 25 28 28 26 27 24 24 25
54 51 48 47 41 36 35 30 28 26 23 20 21 23 44 63 60 49 36 30 34 33 29 35 38 34 35 26 45 50 47 38 32 32 34 31 36 31 29 26 27 30 28 29 29
55 51 51 50 44 39 36 30 31 30 27 23 20 21 42 51 54 54 51 41 25 28 27 32 36 27 25 28 49 51 52 44 39 40 36 29 38 30 31 35 30 34 36 32 30
57 52 54 53 48 41 34 35 36 34 30 24 23 24 23 53 48 51 54 52 33 34 35 32 31 32 33 27 51 55 44 49 43 40 35 35 31 31 27 26 30 33 40 34 35

GFSSW_500_spd_075.txt.gz
Wind_Speed
47 49 47 45 44 42 41 39 39 39 39 38 35 32 32 26 26 23 21 21 22 23 24 24 26 23 24 24 24 24 23 23 25 27 27 28 18 18 18 21 24 18 14 17 14
47 44 45 46 46 42 42 40 40 39 37 37 34 31 31 25 25 26 22 24 23 24 24 25 26 23 22 24 25 26 21 22 26 29 32 27 20 19 19 22 22 8 13 17 20
48 47 47 47 48 47 44 43 42 42 38 36 35 32 30 28 24 25 27 27 26 25 24 25 25 23 22 24 28 26 22 20 23 30 34 28 20 17 18 19 14 11 18 18 21
49 49 48 48 46 48 45 43 42 42 41 37 36 32 31 29 28 27 33 30 28 25 25 25 24 21 22 24 28 21 21 23 21 28 32 24 18 14 13 14 14 14 18 20 23
54 51 52 50 48 47 46 44 42 42 40 39 38 36 35 33 28 35 29 28 29 28 26 24 23 23 20 23 27 20 21 23 22 26 25 18 15 7 8 11 11 14 19 23 20
57 55 55 59 55 52 49 47 44 43 41 39 37 36 35 33 33 34 31 29 30 28 27 27 24 24 18 22 26 22 19 21 25 24 23 15 9 7 11 10 11 13 13 10 13
56 56 53 53 60 59 54 49 48 46 45 41 37 36 34 29 33 32 34 33 32 31 29 30 30 25 20 22 25 21 17 22 22 23 21 17 11 13 12 8 8 12 15 10 11
57 56 52 53 55 59 50 45 46 47 47 46 44 39 34 34 36 35 36 33 33 32 30 33 34 26 21 22 23 21 17 21 23 21 22 14 10 10 10 8 9 11 12 13 8
56 53 46 48 50 51 41 38 39 40 42 45 46 44 38 37 38 38 36 34 37 35 32 36 35 28 24 21 21 20 18 21 25 23 23 22 13 12 12 6 8 7 12 11 11
49 44 44 41 46 44 48 45 44 43 41 43 43 42 40 35 36 36 37 36 37 37 35 34 34 29 24 19 14 23 23 22 23 24 28 20 21 12 12 2 7 7 12 12 9
54 47 37 42 35 35 37 39 41 42 42 44 43 40 39 38 36 38 38 39 39 40 38 33 37 24 19 19 24 31 26 21 20 26 29 26 23 12 8 6 9 6 11 11 10
47 40 41 39 40 43 42 43 39 39 42 41 41 43 37 40 41 39 40 40 39 38 39 40 37 20 25 27 29 30 30 23 22 24 29 24 18 9 3 7 5 7 10 10 9
36 37 38 37 39 41 42 43 44 43 46 40 40 42 34 39 41 36 42 40 39 41 42 42 30 31 31 31 30 29 29 26 27 26 29 25 14 10 2 7 7 12 9 7 6
43 42 43 42 43 45 44 45 44 46 45 46 41 44 43 40 45 39 42 38 39 39 40 42 37 33 35 35 30 30 26 28 32 30 30 27 14 14 6 6 7 13 10 4 5
45 45 45 44 47 49 47 46 46 44 46 41 42 43 46 47 46 47 43 43 41 40 39 38 34 35 36 29 34 23 31 30 33 34 31 22 17 14 9 6 8 13 10 7 7
48 47 47 47 49 51 48 50 49 47 44 45 46 47 48 48 50 52 49 49 43 43 43 44 41 41 39 29 38 27 34 37 33 35 31 20 21 12 12 9 12 11 10 9 10
51 50 49 48 53 53 52 53 52 49 45 47 51 55 53 51 50 50 48 48 48 46 45 44 44 41 40 38 40 39 34 37 37 37 25 20 21 6 11 14 15 16 15 12 11
53 52 52 52 55 55 54 55 54 48 48 50 54 54 54 55 51 52 50 49 51 48 47 45 46 41 39 40 36 35 36 37 39 35 26 25 19 12 19 12 13 22 14 14 10
57 56 56 55 55 55 56 57 50 49 49 45 48 51 52 54 56 50 54 53 48 46 46 48 49 40 37 33 35 36 41 37 37 39 36 29 25 20 19 14 17 20 17 13 9
57 56 53 51 51 52 54 49 47 47 44 45 40 40 46 53 56 57 53 54 55 49 42 42 43 38 38 36 37 38 38 40 41 43 38 33 27 24 21 16 17 18 16 14 6
50 50 48 46 46 47 49 44 41 40 38 35 34 28 31 46 50 54 56 52 49 47 39 38 40 39 38 41 40 43 42 40 42 44 40 31 23 26 21 20 19 19 17 12 13
45 47 42 41 46 44 42 37 33 31 28 29 32 28 17 32 44 45 36 51 54 52 48 44 42 41 36 41 41 42 40 38 41 47 42 32 21 22 22 22 21 16 17 15 17
38 37 34 38 47 44 39 36 35 27 23 28 34 34 27 28 46 52 37 36 48 52 50 41 47 45 40 45 45 45 45 40 44 44 41 39 20 20 26 25 25 21 20 19 21
38 38 43 41 45 42 40 39 35 28 26 26 27 27 31 29 51 46 43 39 36 47 49 43 48 48 45 42 45 46 47 40 46 49 45 46 27 26 28 31 30 23 19 20 24
45 48 44 41 40 40 40 36 33 28 26 25 24 25 27 28 51 47 55 42 38 40 39 44 47 49 41 37 40 48 45 41 48 49 47 40 36 29 26 30 34 30 28 28 29
52 44 47 43 45 42 44 36 33 28 24 26 21 22 27 22 45 54 44 32 52 40 34 40 45 41 39 37 35 36 32 39 47 54 52 45 40 32 32 34 31 30 26 28 28
53 50 52 50 49 45 41 37 32 30 26 27 29 26 23 20 35 52 51 43 32 33 24 37 41 45 41 35 33 40 35 38 43 55 55 49 42 30 29 33 33 36 34 36 33

GFSSW_500_spd_078.txt.gz
Wind_Speed
52 50 47 45 46 49 50 49 45 42 41 39 39 38 39 35 35 35 33 31 29 26 26 25 24 23 23 23 24 22 21 25 29 28 28 29 29 31 33 26 17 16 13 16 17
54 52 50 47 45 45 47 48 46 44 41 39 38 37 38 35 34 35 33 30 30 27 25 26 27 24 23 25 21 21 23 27 28 26 27 27 28 27 27 24 14 8 12 18 18
59 58 54 54 51 47 47 48 48 46 43 41 39 38 38 35 34 33 33 30 29 28 28 28 28 26 23 25 22 18 21 27 26 26 29 28 29 25 21 19 13 13 19 19 21
63 61 61 57 55 54 51 51 51 49 44 42 41 40 38 37 37 34 35 32 28 29 30 31 28 27 24 23 25 17 20 26 23 28 31 30 31 19 20 20 16 16 20 24 22
67 65 63 59 57 54 53 54 52 50 48 44 40 41 39 40 37 38 35 35 32 31 32 31 29 29 25 23 24 21 21 24 22 26 30 31 29 22 18 18 12 13 15 19 19
69 66 62 62 58 61 57 55 56 55 52 47 44 41 40 39 39 41 37 35 33 35 33 32 31 31 25 22 25 24 24 20 24 24 27 28 23 16 20 16 12 11 11 15 16
67 67 62 59 55 58 58 56 56 58 56 50 46 44 41 33 38 40 38 39 34 34 35 35 34 34 29 23 26 23 24 21 24 28 28 26 16 15 16 15 16 14 16 20 19
67 65 60 59 55 55 56 56 55 55 57 58 51 48 44 37 40 38 39 35 34 34 37 38 36 34 31 25 26 24 23 20 28 28 29 23 14 18 17 13 16 17 16 17 12
62 63 61 58 55 54 55 53 54 54 53 57 55 53 44 40 40 40 38 38 38 37 38 41 38 36 32 27 24 23 20 24 28 30 29 29 17 20 19 16 19 16 16 17 15
61 59 59 59 52 51 48 48 49 50 47 51 49 52 49 37 37 40 39 39 39 40 42 42 39 37 29 25 20 23 25 28 22 29 31 30 28 23 22 20 18 16 15 18 16
56 57 57 56 46 44 41 39 44 48 48 47 45 44 38 33 33 35 39 39 40 41 40 38 42 35 23 26 27 28 30 27 21 25 34 31 28 26 19 21 19 12 13 16 15
51 50 51 49 51 49 48 41 37 42 42 38 41 40 39 38 37 38 40 38 36 34 36 41 42 23 30 30 31 31 30 26 22 23 34 33 30 26 20 23 15 9 11 16 13
41 37 38 42 45 43 47 40 40 44 44 37 39 38 35 39 40 35 42 41 38 37 35 39 36 30 31 33 34 31 26 25 28 31 32 35 28 23 16 17 12 9 14 16 12
42 36 36 35 34 37 35 40 36 39 42 35 34 43 41 38 45 36 41 41 39 37 36 41 38 33 34 36 31 36 23 30 33 33 33 35 28 21 16 15 12 10 14 12 11
42 43 43 42 41 41 38 40 39 37 41 36 34 36 40 42 45 44 40 44 40 37 36 37 31 30 33 28 33 30 30 36 33 37 36 30 34 15 19 14 14 13 12 12 13
49 47 47 43 45 47 42 44 42 38 38 39 38 36 38 39 40 45 42 41 43 43 39 41 39 37 36 29 37 32 33 38 35 38 40 26 31 13 22 16 17 10 11 12 11
57 54 51 47 48 45 44 44 42 40 37 40 43 44 42 41 41 40 40 39 42 46 45 44 43 40 39 36 37 37 37 36 40 41 34 30 30 12 21 19 17 11 13 14 12
59 58 55 53 52 51 49 46 41 37 37 42 44 46 46 45 44 43 42 41 43 44 49 49 48 44 41 38 36 34 36 38 41 39 34 34 30 13 21 19 16 15 17 18 13
58 59 57 56 55 52 52 50 41 40 43 44 46 48 49 48 46 45 45 46 46 48 49 49 50 47 45 41 35 36 40 36 36 40 39 38 30 21 22 18 13 20 21 16 15
55 57 57 55 56 53 53 48 45 45 46 46 47 49 49 50 52 49 46 46 50 50 51 51 51 50 48 43 38 40 37 38 42 44 40 37 31 20 24 21 18 17 19 20 16
55 56 55 53 53 56 52 49 48 48 50 50 49 46 45 46 50 51 48 47 47 49 52 51 53 50 48 45 39 42 44 44 44 44 38 36 30 19 27 28 20 23 23 23 21
54 55 54 52 54 56 51 50 50 49 49 47 41 38 35 41 48 51 49 43 46 47 51 51 51 51 47 42 40 43 43 43 43 41 40 37 33 18 27 30 26 25 27 24 26
53 51 52 52 55 55 54 52 49 46 40 34 32 33 34 38 43 39 40 38 44 44 45 48 51 54 51 47 46 47 48 47 46 44 44 42 33 17 27 31 26 28 30 27 26
49 50 51 53 51 50 49 44 41 36 31 29 28 27 33 35 36 34 33 36 35 41 45 45 49 48 51 47 47 46 48 50 48 47 46 42 36 23 31 32 29 29 30 27 26
45 48 45 48 42 38 34 32 35 33 32 31 29 27 27 36 39 38 32 36 43 35 32 38 40 48 46 48 49 47 45 45 46 44 45 42 38 25 27 28 31 31 30 31 30
38 37 33 25 29 34 35 29 32 30 31 31 28 23 29 31 34 36 35 32 46 44 42 32 37 44 47 48 46 51 49 47 46 46 47 45 44 32 33 36 36 35 33 33 31
34 34 33 28 31 31 27 27 29 32 32 28 26 25 27 29 29 33 33 32 45 52 36 19 27 20 41 46 46 49 46 43 44 46 49 49 47 38 36 37 40 37 33 30 30

GFSSW_500_spd_081.txt.gz
Wind_Speed
44 44 45 46 48 48 47 47 45 44 44 43 45 46 42 39 37 36 36 35 37 30 34 31 29 29 27 25 23 21 20 21 23 26 26 25 24 30 31 26 20 20 20 21 19
50 49 49 50 53 53 52 51 52 47 45 43 42 43 42 38 37 38 37 36 35 32 33 32 31 31 28 26 23 21 17 24 23 25 23 24 26 30 31 27 20 18 20 18 20
53 52 53 53 55 56 56 55 54 53 47 44 43 43 44 39 37 38 39 36 34 34 32 32 32 32 30 28 25 20 17 23 23 28 26 22 26 30 32 24 23 17 20 19 21
58 57 58 57 58 58 58 58 57 57 52 49 47 44 44 43 41 40 39 38 36 35 34 34 32 32 32 30 27 20 18 21 22 28 28 24 24 27 28 26 23 19 20 18 20
60 62 61 61 61 61 61 60 60 58 56 51 50 47 43 45 41 44 40 40 40 38 36 35 33 33 33 30 28 21 20 21 21 27 31 25 27 26 25 26 21 19 19 16 18
63 65 66 65 64 62 63 61 60 60 59 55 52 48 49 46 44 45 42 41 41 41 40 37 36 36 34 30 28 26 21 19 22 24 30 26 27 27 24 24 23 21 19 19 17
66 70 67 67 66 66 63 62 60 58 57 55 56 52 50 46 50 45 43 43 42 42 40 39 39 39 34 29 28 27 24 19 23 25 29 23 20 22 26 21 23 22 20 21 20
68 68 66 63 61 61 63 63 60 59 58 56 54 51 48 49 55 48 44 41 42 42 41 41 42 39 34 32 28 28 25 19 25 30 28 22 15 21 28 21 24 24 21 22 19
68 66 64 61 58 57 58 59 59 58 56 56 56 51 47 48 57 51 45 42 41 38 40 41 42 38 36 32 28 28 22 23 29 32 27 25 15 23 25 26 23 24 26 22 18
64 63 59 57 52 53 55 55 55 55 55 55 54 53 47 44 49 46 46 43 41 41 41 42 41 39 38 28 25 25 26 27 27 31 31 29 19 21 23 22 21 24 27 21 19
54 52 53 51 51 51 53 54 54 54 56 54 51 49 46 40 44 46 37 39 37 39 41 40 43 42 26 30 33 30 31 29 24 30 32 33 26 20 21 21 20 21 27 22 17
53 50 49 48 48 49 51 51 52 52 50 51 50 48 41 41 39 36 34 36 37 31 37 41 43 31 31 31 32 31 31 24 23 29 37 33 31 23 21 21 19 23 25 22 16
50 48 48 48 46 45 49 49 45 45 44 39 42 42 39 42 40 39 40 36 35 35 33 36 36 34 35 33 34 30 30 22 27 33 36 34 31 24 20 20 18 21 23 22 13
52 50 48 47 43 42 40 37 45 43 44 38 40 42 42 38 40 31 38 38 41 34 34 39 38 33 31 30 30 32 24 29 31 35 34 36 30 18 17 17 15 19 24 24 11
55 53 50 46 43 41 35 32 28 27 40 37 35 36 37 34 38 38 38 38 34 34 33 36 36 33 33 30 30 28 32 32 34 35 37 29 32 12 16 14 17 20 28 23 12
62 58 53 46 44 41 37 38 34 30 38 31 31 31 29 33 31 32 35 40 38 35 34 36 37 33 35 31 31 33 35 34 35 37 39 22 31 10 13 20 18 25 26 18 12
64 63 57 51 50 45 42 41 36 39 37 35 34 34 31 33 31 30 28 30 35 39 38 37 38 35 36 34 32 35 33 35 38 40 34 25 34 13 12 16 18 22 21 16 13
66 63 60 56 52 49 48 46 42 37 33 33 35 35 35 33 31 30 30 30 30 32 36 37 40 41 39 35 32 32 33 37 40 36 33 31 36 11 12 21 15 21 23 20 15
65 61 57 55 53 52 51 48 43 39 38 38 39 38 35 33 33 34 34 33 33 34 36 37 40 42 41 41 38 37 38 32 37 40 38 36 35 16 9 22 20 20 24 23 17
55 56 52 52 52 51 53 50 46 43 43 40 41 38 37 37 38 37 36 36 36 37 38 39 40 40 43 43 43 44 41 39 43 43 41 38 36 18 12 21 19 17 22 28 22
48 52 47 47 49 52 55 52 49 47 46 44 42 40 40 41 41 41 40 40 39 40 42 43 45 42 43 44 41 42 43 44 43 46 42 40 41 20 18 19 19 19 24 25 28
46 50 45 48 49 52 54 50 49 48 47 45 43 42 42 43 44 45 44 48 46 43 43 43 46 46 43 42 42 44 45 44 45 46 45 42 40 25 20 21 19 23 25 24 26
43 45 45 47 52 48 47 48 47 47 47 46 44 43 42 42 44 46 47 45 49 45 42 42 45 46 45 40 42 43 48 48 47 48 48 45 44 31 20 25 20 26 27 29 32
40 43 47 47 48 47 46 46 46 44 45 45 44 42 39 36 38 43 43 39 37 42 40 38 41 44 44 43 43 39 38 47 48 49 47 46 43 35 23 26 24 28 30 31 28
41 41 42 46 47 45 44 43 42 43 42 39 40 34 29 28 30 37 37 38 36 29 33 34 36 38 41 37 38 42 44 44 49 49 51 46 45 43 28 29 30 27 34 36 32
38 36 37 40 40 40 39 37 36 36 34 33 31 26 25 23 26 34 37 37 40 36 22 30 32 37 34 32 30 40 39 42 45 47 51 50 47 44 33 33 36 31 36 37 37
26 30 34 36 36 35 36 28 25 25 26 28 27 26 23 24 32 32 37 37 33 35 35 30 33 28 26 32 40 39 43 41 43 47 48 48 46 45 37 35 34 39 41 38 38

GFSSW_500_spd_084.txt.gz
Wind_Speed
42 42 43 42 42 42 42 43 45 45 44 43 43 40 39 37 40 37 36 36 38 37 37 37 35 32 32 29 30 25 22 22 26 25 23 27 26 23 24 27 28 30 26 23 19
44 44 44 44 47 48 47 46 46 49 48 48 44 43 41 37 39 38 36 37 37 39 39 37 36 33 32 31 30 27 22 24 27 26 24 26 25 22 24 27 30 30 25 24 19
45 45 45 45 46 50 50 51 51 51 51 50 48 46 43 39 39 38 38 38 39 39 40 39 36 35 34 34 31 29 21 27 26 29 26 25 25 21 23 25 31 33 25 23 19
50 49 48 48 49 52 53 51 53 54 56 54 53 47 45 42 42 41 41 41 41 41 40 41 38 36 36 34 34 30 22 25 26 29 27 27 23 20 22 29 27 28 21 20 20
53 51 51 50 51 53 54 55 56 56 56 59 58 54 48 47 41 43 43 44 42 45 43 43 42 38 37 35 34 30 24 25 27 28 28 30 23 19 23 28 24 24 23 20 21
54 55 55 54 54 54 53 56 59 60 63 63 62 57 54 49 45 44 45 46 46 45 45 44 45 41 39 37 34 31 27 25 26 28 29 31 23 18 25 22 22 24 23 21 25
58 58 58 57 58 60 59 60 64 65 67 66 65 60 59 45 46 47 47 51 49 44 47 45 47 45 42 40 35 32 27 26 24 28 31 30 19 18 23 24 21 23 23 23 23
60 60 60 59 62 63 65 65 67 65 65 63 63 61 57 48 48 48 49 51 55 45 48 46 47 48 44 42 37 33 29 25 25 30 35 29 17 22 24 24 22 21 21 25 24
64 63 64 63 63 66 67 67 66 65 63 61 57 54 51 49 48 46 47 50 57 50 47 47 49 48 47 41 39 32 28 24 25 33 38 29 17 25 25 24 24 23 22 24 24
64 63 63 62 61 66 65 66 67 64 59 55 52 48 47 48 46 43 46 51 53 52 49 50 47 49 48 42 33 29 31 26 26 39 35 32 21 23 23 25 24 24 22 23 21
59 57 55 54 55 57 57 53 54 58 55 52 48 46 46 47 46 44 43 47 52 49 46 50 48 48 42 33 34 36 34 31 26 38 35 31 32 20 23 21 26 27 24 20 20
54 51 50 49 51 52 52 49 50 53 50 47 47 42 46 48 46 42 41 42 44 41 43 51 51 46 35 38 32 37 36 27 28 38 37 33 36 22 21 21 24 25 24 20 14
54 54 52 50 48 47 47 47 46 46 47 42 42 43 43 46 44 43 43 41 38 38 39 45 47 40 38 35 35 35 34 23 33 38 37 37 34 25 23 19 21 22 21 17 16
59 59 58 55 51 50 47 46 44 42 44 41 42 42 43 42 42 40 38 40 38 38 34 39 46 34 31 33 35 36 30 31 35 37 36 40 35 22 16 19 21 24 20 18 20
64 63 60 56 54 55 48 45 42 39 41 36 34 35 38 40 37 35 35 37 32 31 41 35 32 34 30 26 30 31 33 34 36 37 37 38 34 19 13 17 22 25 21 19 21
65 62 59 55 52 57 51 48 41 39 42 33 28 29 28 29 29 28 30 32 37 34 31 35 37 37 30 32 31 31 34 36 36 37 42 30 37 17 13 17 21 23 22 19 20
69 67 62 59 55 55 53 50 44 43 41 38 32 28 26 25 23 23 28 24 25 31 39 34 34 33 31 30 33 33 32 34 37 41 40 30 38 20 14 15 20 17 21 18 17
71 67 62 58 57 56 54 52 49 43 40 36 34 31 28 27 24 20 22 25 25 24 26 31 37 38 34 31 31 29 29 33 39 38 35 34 38 22 16 15 24 21 23 20 18
52 51 49 52 55 57 54 55 51 47 42 39 40 36 32 30 27 27 26 24 26 29 29 30 31 32 35 36 36 34 38 31 35 38 39 38 38 25 16 19 24 23 21 25 20
41 43 41 47 48 52 55 54 55 49 44 41 38 35 34 33 28 28 27 28 26 29 28 29 30 32 34 35 35 39 40 37 38 40 39 38 37 35 16 19 22 27 22 27 24
34 34 31 38 39 48 53 52 51 48 45 43 39 37 35 35 32 30 31 28 28 28 29 31 31 29 32 32 32 34 38 38 40 42 40 38 31 41 20 24 19 27 22 24 24
30 28 26 34 40 46 47 46 43 43 42 43 42 40 37 36 36 35 33 33 29 29 31 32 33 33 32 34 33 33 34 39 42 43 45 43 40 39 19 20 18 24 24 23 24
31 26 27 32 36 41 41 42 41 41 39 40 40 39 38 37 36 36 35 34 33 32 33 34 36 36 35 34 35 37 36 34 36 41 44 44 41 38 34 24 26 23 26 25 24
33 30 29 32 35 36 39 39 39 37 36 39 38 38 36 36 36 36 33 34 34 35 37 37 38 39 37 36 37 40 38 41 40 43 41 44 44 42 39 26 27 25 27 28 29
27 28 27 31 33 34 37 39 37 37 37 34 37 37 34 32 34 35 34 35 36 38 40 40 40 39 38 36 36 39 40 41 42 44 47 40 42 40 41 29 28 27 31 32 33
30 25 26 26 30 36 37 39 37 35 35 32 34 31 32 31 29 31 35 36 37 37 38 39 32 26 27 30 30 36 36 37 44 44 44 42 42 42 42 31 33 31 34 37 38
28 23 19 22 30 29 37 33 32 29 28 27 25 30 29 27 29 30 31 30 28 30 34 34 29 20 23 29 26 25 32 35 37 42 47 46 40 39 38 38 33 32 38 40 41

GFSSW_500_spd_087.txt.gz
Wind_Speed
47 45 43 42 42 42 42 42 41 41 42 42 42 41 41 39 38 36 32 32 35 32 32 34 35 36 36 35 32 30 31 25 24 26 30 33 27 31 26 25 28 27 29 31 30
50 50 47 47 45 44 43 42 41 42 43 44 44 43 45 43 39 37 38 35 34 33 32 33 37 37 37 35 35 32 32 24 27 31 30 30 29 28 30 27 28 30 28 29 27
51 50 50 49 48 46 45 44 43 43 44 45 47 46 46 48 43 48 38 37 36 35 33 36 37 38 37 37 36 36 33 26 29 32 31 28 29 31 29 23 28 28 29 32 23
53 53 53 53 53 50 50 50 47 47 46 46 47 49 50 49 47 44 42 40 38 38 36 37 38 41 39 39 37 42 33 29 29 34 31 27 28 28 29 22 31 24 26 26 24
56 57 55 56 54 54 53 52 51 50 47 47 47 50 51 50 45 52 46 43 41 40 40 40 42 42 44 40 40 42 35 33 31 33 33 30 28 29 23 28 27 22 26 25 23
59 58 58 57 57 55 54 53 53 51 50 49 48 49 50 53 49 50 50 47 44 42 41 42 44 44 47 45 42 41 39 34 31 31 34 32 29 28 21 31 25 24 25 25 25
60 61 58 58 57 56 56 56 57 57 55 53 52 54 50 48 53 53 51 50 47 44 44 44 45 46 47 49 46 43 41 37 31 31 33 35 29 28 23 30 25 25 27 26 25
60 59 58 58 59 58 59 59 59 58 57 58 57 57 56 50 54 53 52 49 46 45 46 47 47 48 50 49 49 44 43 39 29 33 31 35 28 29 27 25 26 25 27 26 27
60 59 59 59 58 57 59 59 61 61 60 61 61 62 63 57 55 50 53 49 47 46 47 48 51 51 50 52 52 48 44 40 31 35 32 38 30 28 32 23 25 25 27 28 27
58 59 60 59 57 56 58 59 60 62 61 63 63 63 61 63 57 50 51 49 48 47 49 49 50 52 53 55 56 48 39 38 35 26 33 40 33 28 31 27 25 25 28 28 27
53 54 56 55 55 54 56 54 58 58 62 59 58 54 58 59 57 53 49 48 48 47 48 47 54 51 50 49 51 43 41 43 40 24 39 43 33 30 29 28 25 25 27 27 27
52 51 52 51 49 50 51 49 52 56 60 51 50 54 50 53 51 49 48 45 44 43 43 50 50 41 44 52 55 44 45 48 34 34 42 41 36 30 27 27 23 25 27 27 25
50 50 49 49 49 49 49 48 47 47 50 48 46 49 51 52 49 45 46 41 42 43 45 45 40 40 42 50 52 42 39 38 35 35 40 43 36 34 23 28 23 23 24 27 24
52 54 51 51 52 52 52 49 49 49 49 47 43 45 46 47 44 44 44 41 42 44 40 44 41 46 37 45 46 45 36 35 36 39 44 39 37 30 22 24 22 23 26 27 22
55 55 54 53 54 55 54 52 51 49 49 52 44 42 42 38 39 41 38 39 37 38 47 42 38 38 41 38 36 41 37 38 37 41 41 37 40 25 24 23 21 25 25 23 20
57 56 56 57 56 56 55 52 48 47 51 52 45 41 37 32 28 31 33 39 34 37 41 36 40 40 33 28 40 29 35 35 36 38 41 37 35 31 21 22 21 22 25 23 17
58 57 58 58 57 58 56 54 50 50 50 48 47 41 35 25 19 21 27 29 26 31 34 32 35 32 33 29 32 31 28 29 31 36 38 32 30 33 22 24 20 26 21 22 17
57 59 60 61 62 62 60 59 55 52 50 51 45 41 34 30 28 28 27 24 26 21 29 29 38 35 30 33 29 31 32 30 24 18 21 21 28 26 24 25 25 26 24 22 16
55 58 60 61 59 56 56 60 56 52 52 48 46 41 37 31 29 24 23 22 30 25 27 28 27 34 36 31 35 35 33 27 33 23 21 22 15 16 16 22 23 26 26 24 20
43 42 41 40 39 41 48 53 51 46 54 49 43 41 24 33 32 29 24 25 26 25 30 31 28 28 28 39 40 38 30 37 36 38 31 23 22 17 20 19 22 22 27 26 23
27 29 29 30 28 30 41 36 43 45 52 45 39 42 38 36 33 31 29 25 25 24 24 30 29 28 29 26 28 30 36 36 34 36 30 18 14 13 20 19 19 28 29 27 24
29 24 24 21 24 30 33 29 29 35 45 40 41 40 39 38 34 32 33 28 25 22 26 24 25 29 26 26 27 30 31 32 36 36 27 29 31 18 23 11 21 19 24 24 25
30 27 23 21 24 22 26 31 33 35 36 37 38 38 38 36 33 30 30 29 26 28 27 24 25 24 25 27 28 28 30 32 34 35 38 32 23 20 28 18 25 26 26 23 26
29 27 22 24 22 24 23 27 31 31 32 34 34 35 36 35 33 31 30 31 29 29 26 26 25 25 23 21 25 30 33 35 36 37 35 38 31 28 17 22 24 24 23 28 28
28 22 19 20 23 24 27 25 29 28 28 28 27 29 32 31 31 29 28 29 28 30 27 27 26 28 26 28 33 31 31 31 34 35 38 34 32 28 31 33 26 27 29 27 30
30 23 23 16 22 22 28 27 27 26 23 27 27 25 30 29 30 26 31 31 31 30 26 28 26 27 27 22 26 31 31 32 33 35 37 39 39 29 32 31 32 37 36 35 34
31 26 24 16 20 27 23 26 28 26 29 21 20 25 25 25 29 30 31 30 29 28 27 28 25 25 23 22 23 29 27 29 32 35 38 41 39 33 31 30 34 28 28 32 39

GFSSW_500_spd_093.txt.gz
Wind_Speed
48 48 47 45 43 42 43 44 42 41 42 43 41 41 41 39 40 41 36 39 37 37 35 34 31 30 32 27 28 31 35 29 16 23 16 25 20 31 37 28 24 33 31 30 31
56 53 51 46 46 48 47 48 53 46 46 46 48 44 44 42 41 42 40 38 37 38 39 36 32 33 33 27 29 31 34 25 23 26 24 30 30 37 36 32 29 30 30 34 30
58 60 58 56 51 50 50 49 50 53 51 48 50 52 49 45 45 42 41 41 39 37 36 37 36 34 34 31 29 30 34 27 27 29 30 32 34 35 37 33 34 31 28 31 32
61 60 61 60 59 57 55 52 52 53 54 54 51 51 50 55 49 46 44 43 42 40 38 37 37 36 34 34 31 36 34 33 28 31 33 33 36 34 33 33 35 35 29 30 30
65 64 62 63 62 60 58 57 55 54 55 54 56 54 51 48 47 50 49 46 42 41 39 38 36 36 37 35 35 37 32 35 34 35 34 34 38 36 33 28 36 34 31 28 29
70 67 66 62 62 62 62 63 62 60 59 59 57 57 53 50 49 48 45 42 40 37 38 37 36 38 41 40 38 32 35 36 38 35 33 37 36 38 31 30 36 35 32 27 26
68 70 69 66 64 61 61 63 63 62 60 60 59 56 52 50 48 46 44 43 41 40 38 38 35 38 40 40 37 36 40 40 41 34 37 36 39 37 29 31 36 35 35 28 26
62 64 63 64 62 59 54 55 56 56 54 55 57 55 52 49 47 46 45 42 42 42 39 37 38 41 38 35 36 37 42 43 40 37 36 36 38 35 31 33 35 36 35 29 30
60 59 60 58 55 52 50 48 51 50 49 51 52 53 51 50 48 46 46 44 44 44 39 39 40 40 36 38 41 41 46 45 40 38 40 40 36 37 35 34 34 38 35 31 28
56 55 52 53 50 48 49 47 48 49 49 48 50 50 51 49 48 44 47 45 40 39 39 38 35 38 42 43 45 39 41 43 44 39 42 41 37 42 31 36 36 37 38 32 27
55 56 51 49 47 46 44 44 49 50 48 45 49 47 46 48 47 41 39 41 38 37 34 31 40 42 35 36 39 42 43 44 44 46 50 46 41 45 47 32 34 39 37 32 27
57 54 53 48 45 46 47 46 45 47 44 44 44 46 40 48 49 32 41 38 33 31 32 38 41 34 34 38 42 44 46 48 48 51 50 47 49 44 56 35 34 34 35 28 24
59 56 49 44 44 45 45 42 42 41 47 40 40 43 36 45 44 31 40 32 28 31 33 34 36 36 39 40 44 46 45 45 50 52 55 50 50 47 51 48 42 31 35 28 24
55 50 46 44 43 44 43 43 41 39 43 44 37 38 38 36 40 33 36 36 37 31 30 36 36 38 41 42 44 46 42 43 48 52 55 42 51 48 54 55 36 35 34 27 26
48 47 43 43 42 43 42 42 41 39 42 44 43 36 35 35 35 33 31 34 33 32 34 32 34 36 40 42 42 44 40 39 45 49 49 45 46 39 51 49 41 32 39 27 24
44 42 42 39 40 42 40 40 37 36 34 34 38 39 35 34 31 32 30 32 32 35 37 35 34 39 41 44 46 45 41 40 45 44 48 38 39 49 41 47 30 26 21 20 24
40 38 39 37 40 40 42 41 39 35 35 23 30 40 39 32 30 29 28 30 31 33 33 31 34 37 40 43 43 40 36 44 43 44 41 29 34 44 28 31 31 26 32 21 22
37 35 36 38 38 39 40 40 39 38 35 34 33 38 41 37 36 30 31 29 30 31 31 32 34 36 38 44 40 32 37 43 40 37 30 23 32 13 22 25 23 14 23 18 22
33 33 32 36 36 38 39 40 39 34 37 37 37 38 38 40 35 37 34 33 27 30 31 31 34 35 36 36 37 36 37 31 31 35 34 23 25 20 24 26 28 20 28 26 24
32 30 33 34 35 36 36 33 32 34 39 38 39 38 39 36 38 34 33 31 30 32 33 35 34 26 27 27 27 26 29 30 33 34 31 27 18 16 26 34 20 19 29 31 30
31 29 32 31 31 31 27 22 29 32 38 38 37 35 29 29 30 31 24 29 34 35 32 25 26 26 23 14 12 20 33 27 29 30 25 35 13 8 25 24 24 23 20 29 27
26 24 25 24 25 23 15 19 20 21 28 31 38 35 36 29 25 36 23 38 33 34 33 41 24 26 29 27 17 17 14 32 30 29 24 24 25 14 19 22 26 27 28 26 18
22 21 21 23 22 18 17 16 15 14 25 37 38 42 35 34 34 35 21 13 39 26 36 29 31 24 24 24 23 15 14 13 19 27 28 34 32 22 20 16 29 27 27 21 24
18 16 19 20 19 16 15 14 7 10 23 30 36 28 45 45 30 27 18 6 41 37 22 19 21 24 23 26 33 24 16 19 19 16 25 29 26 26 19 11 16 19 14 14 13
15 15 21 20 19 15 17 10 10 8 17 29 34 24 33 39 26 31 26 12 38 32 29 26 25 21 22 24 26 31 27 26 21 16 17 15 31 31 29 28 25 17 24 20 21
15 18 17 16 16 15 15 9 14 12 16 23 19 37 28 33 36 33 37 34 31 31 31 28 28 27 20 22 25 24 28 27 27 27 29 25 27 34 40 39 31 28 26 34 37
14 15 16 16 16 14 12 9 11 19 17 19 25 25 25 32 36 36 36 37 33 36 32 28 22 23 21 24 21 18 17 23 24 26 29 31 29 27 27 28 29 40 38 33 18

GFSSW_500_spd_099.txt.gz
Wind_Speed
54 54 53 52 51 52 50 52 53 52 50 48 45 44 43 41 38 38 30 35 32 33 36 34 36 37 38 38 37 36 39 33 22 19 18 30 38 36 31 31 29 31 29 26 28
59 58 58 58 58 57 57 57 56 56 55 53 51 48 48 44 40 43 39 36 36 35 33 37 37 37 37 39 40 40 38 35 25 29 28 33 36 31 35 34 25 30 29 29 32
63 61 61 62 62 61 60 62 61 61 59 57 55 52 50 50 46 44 47 46 44 42 40 39 38 39 41 39 39 38 39 37 33 32 32 34 33 33 33 36 23 31 30 32 35
68 66 64 67 67 67 65 65 65 64 64 64 62 60 57 56 53 49 47 45 46 44 43 41 41 40 40 39 37 41 41 40 36 35 38 34 32 35 37 30 24 31 32 33 33
67 69 70 69 69 69 70 68 68 68 68 66 64 64 64 61 54 54 51 49 47 45 45 43 44 44 43 41 41 42 40 40 41 39 40 38 35 37 38 24 27 31 34 33 34
56 59 63 67 70 69 67 68 70 69 66 69 67 65 65 60 58 55 54 51 48 46 46 47 45 46 47 48 50 44 43 42 43 43 42 39 35 38 30 27 30 34 33 33 36
53 53 55 57 58 61 58 59 66 70 69 68 66 68 64 57 61 56 54 54 52 50 48 47 48 46 45 45 45 46 47 44 42 41 37 36 37 34 29 29 32 33 36 38 35
58 59 59 60 59 58 57 56 58 59 62 60 56 60 64 58 58 55 56 54 54 52 50 52 48 48 45 43 43 43 44 45 43 40 35 36 38 33 33 35 36 37 40 39 35
64 65 65 63 64 64 62 59 56 54 54 55 52 52 53 58 60 59 53 50 52 52 49 50 48 45 44 43 42 44 43 41 41 40 39 41 42 37 36 41 38 39 39 38 35
69 71 71 72 69 65 67 63 59 58 52 50 47 45 48 48 47 47 47 48 49 49 46 45 45 44 42 42 44 41 41 41 42 41 42 43 46 43 37 40 38 39 38 38 37
75 77 76 76 75 73 69 65 61 59 57 47 43 41 43 44 45 42 40 43 43 44 43 42 45 47 42 39 40 43 43 47 47 46 46 45 43 41 40 37 35 37 40 40 38
77 77 77 76 77 75 68 63 62 59 56 44 42 40 42 44 43 41 41 42 42 41 42 44 45 42 41 41 42 42 44 47 47 46 47 45 44 42 41 37 38 36 37 43 42
71 74 75 74 74 74 60 58 57 55 59 43 40 39 38 44 40 37 40 38 38 40 40 40 40 40 39 40 42 42 44 45 47 49 48 45 45 39 36 38 39 39 39 44 45
65 63 63 67 66 67 53 53 50 48 49 46 39 40 40 41 38 34 39 37 39 38 36 38 40 39 37 38 42 42 43 46 47 48 44 44 47 37 38 36 38 36 37 45 48
58 41 32 30 49 55 48 48 46 43 44 43 39 43 42 39 40 39 38 38 38 35 36 38 36 36 36 38 41 38 43 45 46 47 46 42 46 41 37 36 34 40 44 47 44
44 23 16 21 36 39 41 44 43 43 43 35 34 38 39 40 38 38 37 38 37 35 37 39 38 37 38 38 40 41 43 44 45 45 43 37 44 34 37 41 44 45 45 50 44
34 21 14 16 21 29 33 38 41 41 38 37 29 31 33 36 37 40 38 37 38 36 35 34 33 34 36 40 41 42 41 41 43 45 39 39 43 36 43 40 45 44 43 47 41
30 20 13 10 13 21 28 34 35 37 40 34 32 32 32 36 39 40 39 35 34 34 33 34 34 35 35 37 36 36 38 40 42 42 38 38 43 37 38 39 38 38 40 39 41
23 20 13 7 10 19 25 29 31 35 36 35 34 35 36 36 36 34 34 34 34 35 36 35 34 32 34 34 35 33 38 37 36 35 38 40 42 38 32 32 33 35 37 35 40
15 17 13 8 10 16 23 28 30 32 31 30 33 34 34 35 36 36 35 36 37 37 37 35 35 32 33 34 33 32 25 34 37 39 41 42 38 33 31 32 34 34 31 31 40
13 13 12 10 11 17 21 18 16 22 28 30 32 33 35 35 35 35 37 37 36 35 34 35 36 30 33 32 31 30 30 28 33 38 39 37 33 31 29 30 36 32 31 33 36
12 8 10 10 11 14 13 12 18 25 29 28 29 34 38 37 37 36 37 37 36 34 31 34 38 37 32 32 32 28 28 28 29 32 35 38 34 31 31 28 24 25 20 32 40
10 9 7 8 8 10 12 16 19 21 24 24 24 30 35 42 43 42 36 36 36 36 28 31 30 31 33 34 31 29 31 29 31 28 27 34 36 26 28 26 28 24 25 39 44
9 9 9 8 10 12 14 17 19 20 20 21 24 28 33 36 43 43 37 39 38 41 37 34 34 34 32 33 31 36 30 30 27 29 31 30 32 25 28 28 23 21 15 35 39
5 8 9 10 13 15 16 18 21 21 20 22 19 21 26 29 36 35 26 23 26 32 30 30 27 37 33 27 29 26 31 28 30 29 29 22 27 28 26 28 20 25 8 31 41
9 10 8 11 13 15 17 19 21 20 18 22 17 11 13 29 38 21 34 28 20 21 15 29 27 26 33 30 31 33 32 34 31 33 20 21 21 16 18 22 20 14 6 25 32
9 10 10 12 14 16 17 19 23 20 18 19 14 12 15 24 31 24 29 33 24 12 11 24 22 19 16 21 17 21 24 28 33 30 29 23 17 18 15 12 14 16 12 12 12

GFSSW_500_spd_102.txt.gz
Wind_Speed
50 53 54 54 55 55 54 54 54 54 52 51 51 49 46 45 41 40 38 39 38 37 34 34 35 37 38 38 37 38 40 36 28 22 22 28 33 36 34 30 30 21 23 25 25
55 54 56 58 59 60 60 59 58 59 59 57 55 54 53 49 46 45 45 43 42 41 39 36 35 35 38 36 36 37 37 35 26 26 28 33 36 37 35 34 32 21 27 28 27
60 60 61 62 64 64 63 63 63 62 61 62 62 60 57 56 53 48 50 48 44 44 46 40 39 38 38 37 37 35 34 33 30 31 35 36 37 39 38 37 32 26 30 31 28
55 56 58 60 63 66 67 69 68 67 66 63 62 64 63 62 58 57 52 51 51 48 48 47 49 46 43 41 38 38 35 35 33 35 36 38 40 41 41 40 32 32 33 32 29
56 55 55 56 56 59 63 68 69 71 70 70 69 65 67 65 59 62 60 57 54 51 49 48 46 44 44 40 43 44 39 35 34 36 37 40 40 38 43 42 32 34 35 34 31
51 51 54 55 54 55 57 58 61 62 66 70 69 70 68 64 64 61 65 62 60 56 53 50 48 46 49 47 44 42 43 42 40 36 38 38 36 41 40 37 36 36 34 36 35
51 52 54 55 57 57 58 57 57 59 59 60 60 60 66 60 66 64 63 61 59 58 55 53 51 48 46 46 45 44 45 45 44 43 40 40 39 41 36 38 41 39 38 38 39
57 60 63 62 64 64 65 64 64 65 61 57 56 57 55 55 65 64 63 63 62 59 56 55 54 53 50 49 46 45 45 45 43 42 43 41 37 37 35 40 43 41 42 43 42
61 61 64 66 68 70 70 69 66 68 66 64 56 54 48 52 53 59 59 57 60 60 57 54 55 55 52 51 51 51 48 44 41 41 40 41 39 42 42 44 44 45 45 44 42
62 65 68 71 74 77 76 74 74 73 68 68 62 56 48 48 51 50 53 53 57 54 54 56 55 54 52 52 51 48 42 40 40 42 42 42 40 44 44 42 45 46 45 44 42
67 71 75 79 81 83 82 82 82 78 76 70 66 59 52 45 50 48 49 52 52 58 61 49 49 51 46 45 43 43 43 43 45 45 45 44 44 47 46 45 45 42 43 42 42
71 75 78 79 79 80 82 79 80 82 75 69 66 63 48 46 47 48 47 47 46 48 45 48 53 44 44 45 45 45 44 45 46 46 46 47 47 49 50 47 43 41 41 40 40
72 73 71 73 73 70 68 68 68 66 71 63 58 57 43 47 45 45 47 41 41 41 39 39 39 42 45 45 45 46 45 46 46 47 49 50 43 46 47 45 41 40 41 40 44
64 63 66 69 65 50 37 39 46 46 56 54 49 52 47 44 44 40 45 42 42 38 35 40 43 44 44 43 45 45 46 47 48 50 49 49 42 43 41 41 41 39 39 42 43
55 56 60 61 45 13 19 14 11 32 37 38 42 46 45 42 43 39 42 41 40 37 40 39 40 42 43 38 39 43 45 47 49 49 48 45 46 43 39 36 38 40 41 40 38
50 53 51 44 34 25 21 15 17 22 27 23 27 34 40 42 42 41 40 40 39 40 39 39 39 39 41 41 39 41 44 45 45 47 47 46 47 40 39 41 37 40 39 40 40
47 49 41 34 25 13 10 21 10 22 20 22 20 24 34 38 42 40 39 38 39 40 40 39 38 39 39 39 38 40 41 40 42 46 45 46 47 38 40 39 45 41 39 42 43
44 42 31 25 17 4 18 10 10 20 24 19 25 26 29 32 36 42 42 42 43 42 41 39 39 39 38 39 39 38 41 42 44 44 43 44 44 41 39 44 44 44 44 41 42
38 36 23 18 13 4 14 15 17 18 21 23 25 29 28 31 33 37 40 41 42 43 42 41 42 40 40 40 39 37 39 39 38 41 44 45 42 42 40 41 42 40 40 43 48
34 31 18 12 11 5 8 15 19 16 19 25 23 27 29 28 31 34 35 34 35 38 41 41 39 38 37 38 37 35 35 36 38 40 40 40 39 43 41 41 36 39 41 41 45
30 26 17 7 8 5 5 7 13 14 17 19 26 28 25 29 30 34 34 35 34 36 38 38 37 34 36 37 37 34 34 35 36 37 39 39 40 39 38 35 33 40 38 37 42
27 22 15 4 4 4 2 7 9 13 16 18 20 25 27 30 29 33 34 35 32 31 33 35 37 35 32 33 35 34 33 34 38 38 39 39 39 37 34 32 33 36 33 32 32
22 20 13 6 1 2 3 7 10 11 12 13 17 21 26 28 30 32 34 34 34 30 30 32 35 37 31 30 32 32 33 31 33 35 35 34 31 25 28 30 32 33 26 27 19
20 17 11 8 4 4 5 7 10 11 10 10 14 18 21 25 30 33 34 34 35 31 33 33 35 33 30 25 27 33 33 33 30 29 27 27 25 29 30 29 25 25 20 30 9
18 15 11 7 6 6 8 8 9 12 12 12 15 17 20 25 30 32 34 36 35 29 28 33 34 35 34 31 28 29 28 30 32 29 28 24 28 27 26 23 20 16 16 23 6
15 15 11 9 7 8 10 10 10 13 14 14 17 19 23 20 25 29 32 33 23 16 23 27 33 37 39 34 30 28 26 34 37 27 22 24 27 26 21 19 17 11 13 12 15
14 12 10 10 7 9 11 13 14 14 16 17 18 18 13 9 11 17 23 26 27 26 14 21 21 24 28 30 32 29 31 25 21 23 27 29 27 29 16 17 16 16 16 21 12

GFSSW_500_spd_105.txt.gz
Wind_Speed
47 49 49 49 49 50 52 53 55 55 56 55 55 52 51 48 47 43 41 42 40 40 40 40 39 38 39 39 39 38 37 35 29 23 19 27 32 35 35 33 33 29 23 27 28
52 53 53 53 53 52 54 55 57 58 59 60 60 59 57 54 51 49 47 45 43 42 40 41 40 39 38 38 38 38 35 32 26 25 26 32 35 38 38 35 35 32 25 30 29
58 58 56 56 54 53 51 52 55 58 63 64 64 64 62 61 58 54 55 51 48 48 48 46 44 43 41 39 37 36 32 32 29 28 32 34 36 37 39 37 38 37 29 32 31
57 57 57 54 52 50 50 51 52 54 56 64 67 69 66 63 62 63 58 57 55 52 52 52 49 47 44 44 40 39 35 35 32 32 34 34 36 39 39 40 42 40 35 36 35
54 54 55 56 52 51 51 51 52 54 56 58 61 66 70 70 61 67 64 60 59 57 55 55 55 52 49 47 48 47 44 41 37 36 37 38 36 35 38 40 42 41 36 38 39
53 55 55 55 55 56 55 54 53 52 56 57 60 61 64 60 61 66 68 64 62 60 59 58 57 54 52 51 49 46 44 42 41 39 39 37 31 35 37 36 40 42 40 41 42
54 56 57 58 59 60 61 61 60 60 62 63 60 58 57 49 57 62 64 64 63 61 60 59 61 60 57 54 53 50 47 45 44 42 39 39 37 37 37 37 39 41 43 44 43
54 58 60 62 63 65 66 66 66 65 66 68 68 66 54 51 53 53 56 61 63 64 61 61 61 62 61 59 56 54 52 50 46 42 39 41 38 39 40 40 40 43 45 46 45
53 55 58 61 64 66 68 71 72 72 73 72 72 70 60 60 59 53 51 52 55 60 61 65 63 62 62 60 59 59 55 50 46 42 41 42 35 40 43 44 44 44 45 46 45
53 56 60 63 66 69 71 73 75 77 79 81 80 75 69 69 66 57 51 51 53 55 58 62 65 64 63 62 60 58 53 48 43 45 44 44 41 42 42 43 45 45 46 46 45
56 59 62 66 71 74 79 84 86 86 88 90 87 84 73 72 70 62 56 49 51 54 55 57 59 56 61 58 57 55 51 48 48 49 48 44 43 44 43 43 41 42 45 47 45
59 62 66 70 74 80 81 80 80 81 80 77 85 88 80 74 71 64 56 51 48 48 52 55 51 48 51 54 54 52 50 48 48 48 48 46 44 45 45 44 43 43 43 44 45
61 66 67 70 74 73 73 73 70 61 58 48 56 63 63 64 65 56 51 49 46 46 49 48 43 49 51 51 50 47 46 47 47 45 46 48 46 46 46 46 44 42 43 44 44
64 64 64 68 67 64 68 65 47 22 23 17 21 36 44 52 58 46 49 46 45 44 43 47 46 44 47 53 51 51 43 42 43 45 46 45 46 47 44 44 43 44 44 43 42
63 59 62 67 57 60 58 53 7 5 13 11 5 20 33 41 46 42 43 45 44 42 42 39 38 36 31 33 32 37 37 41 45 47 49 45 46 46 42 40 41 38 39 42 43
58 55 60 56 54 54 46 27 7 6 3 5 2 9 20 33 37 41 40 41 43 39 43 39 36 35 32 31 31 31 35 39 42 42 46 44 45 43 46 44 37 36 41 42 43
53 53 57 49 48 41 21 14 1 15 5 7 5 7 14 23 31 38 37 36 38 37 37 32 32 36 36 32 31 33 32 34 38 42 43 42 42 43 45 42 41 40 39 42 44
50 51 52 43 39 24 1 7 6 10 7 10 8 9 12 18 27 33 31 36 38 37 37 39 38 35 31 28 29 29 31 32 36 40 40 41 42 42 42 42 41 44 44 42 44
47 48 45 40 28 16 5 13 10 3 12 16 12 12 11 15 20 26 28 31 33 35 35 35 36 35 35 33 32 34 34 30 33 37 39 41 41 40 39 39 39 44 45 47 45
44 45 40 35 21 12 7 10 12 7 9 15 19 14 17 12 16 14 22 26 34 36 38 34 34 35 36 34 34 33 33 32 34 35 37 39 38 38 39 39 41 44 44 45 47
42 41 35 30 18 9 7 7 10 11 8 12 13 16 13 12 8 18 18 15 25 28 31 31 30 31 31 32 32 32 34 34 33 33 34 35 34 35 36 38 41 43 45 46 47
39 36 31 25 15 7 4 4 5 4 5 8 9 14 15 11 13 16 20 20 22 24 25 29 29 26 25 27 28 29 29 31 31 29 31 32 34 35 34 35 40 42 45 48 44
36 33 28 21 13 6 3 2 3 3 4 5 6 8 11 13 16 18 20 22 22 23 24 24 25 22 24 28 29 29 28 28 28 29 30 31 32 35 35 36 40 42 44 44 43
33 29 24 18 12 9 5 2 4 3 2 3 3 4 6 9 14 19 21 23 23 24 25 26 25 25 22 25 27 30 30 28 28 30 30 29 27 31 31 32 37 39 36 36 36
30 25 21 15 12 10 6 4 4 4 3 1 2 5 7 10 13 17 20 25 25 25 25 26 29 30 27 26 24 26 29 30 30 31 32 29 23 21 23 27 28 31 27 29 24
28 24 18 13 12 11 7 6 6 5 2 3 5 8 13 17 20 23 25 26 25 25 22 23 27 29 29 27 29 25 25 26 27 24 25 26 23 23 23 24 19 19 19 18 20
27 21 15 14 11 10 8 8 6 5 6 7 9 14 16 18 15 13 11 22 24 23 12 13 18 21 26 30 30 28 27 25 23 21 25 21 24 24 23 23 21 15 19 18 23

GFSSW_500_spd_108.txt.gz
Wind_Speed
40 43 46 46 47 48 49 49 50 50 51 52 52 52 51 51 52 52 49 48 48 45 46 44 45 43 43 44 43 42 41 37 35 30 29 30 35 38 39 40 35 33 30 27 27
45 45 46 47 49 51 52 52 53 53 53 53 53 55 56 57 56 56 55 53 51 49 48 47 47 46 45 44 44 44 39 34 35 32 31 34 38 39 40 41 40 37 31 27 26
49 50 51 51 52 51 50 51 52 53 53 52 52 51 51 56 58 61 61 59 56 53 53 51 50 49 46 44 42 39 37 36 37 33 35 37 38 40 41 42 42 39 35 32 29
51 52 53 54 54 53 53 52 51 50 50 49 48 48 47 48 55 62 64 63 60 58 57 57 55 54 51 48 45 43 40 39 38 33 36 38 40 42 41 44 45 40 40 36 33
51 52 53 52 54 54 54 54 54 53 54 55 55 53 51 51 49 56 64 65 65 61 60 61 61 59 57 55 51 49 46 44 42 38 38 40 40 40 42 44 43 44 41 38 36
52 50 51 52 52 53 54 55 55 57 58 60 62 61 62 62 50 56 61 62 63 64 63 62 63 63 62 60 58 56 53 49 46 46 43 41 39 40 41 39 41 44 43 41 40
48 49 50 52 52 53 55 57 59 60 61 62 65 67 67 60 56 58 58 59 59 60 63 64 64 67 67 65 62 60 59 52 50 48 47 46 44 42 41 40 41 42 41 43 43
49 48 49 51 52 54 56 59 61 62 64 66 70 71 68 64 63 62 61 59 57 55 58 62 64 66 65 68 67 61 62 60 53 51 47 45 41 44 43 42 40 40 44 46 46
47 46 48 51 54 56 58 59 61 64 66 71 74 76 73 70 71 70 67 62 59 57 55 57 61 64 67 64 69 68 64 63 60 58 50 46 44 45 49 44 45 46 47 48 48
44 47 50 55 58 59 59 64 66 70 75 83 90 92 84 83 79 75 72 68 64 58 58 55 57 63 65 66 62 68 69 67 67 60 54 48 47 50 45 46 49 49 48 47 46
45 48 54 57 59 62 65 68 75 84 83 86 89 95 89 88 89 82 78 74 68 64 59 55 55 54 55 61 60 68 70 70 66 64 60 52 50 49 50 48 49 47 46 47 46
47 51 54 57 61 64 69 77 81 85 83 71 73 70 67 62 76 79 77 75 68 61 59 57 49 51 56 57 59 67 69 68 66 67 61 55 53 52 52 49 48 47 45 42 42
49 51 54 58 63 67 71 74 78 73 70 44 30 36 35 41 53 55 61 67 62 54 56 53 46 49 53 53 57 61 59 64 66 65 60 58 57 55 52 50 49 48 45 43 41
48 50 54 59 63 64 66 72 67 61 37 11 19 28 25 20 37 49 52 51 50 45 46 49 51 52 51 48 51 57 59 59 63 57 56 54 57 54 54 51 48 46 44 42 42
47 50 55 59 58 59 66 64 54 22 7 11 16 16 19 11 20 39 38 45 44 42 45 47 49 48 48 43 46 51 48 49 53 53 52 53 53 49 52 47 45 43 43 42 41
47 50 55 53 53 58 56 52 21 14 12 12 22 8 12 7 10 28 33 38 38 38 41 43 42 44 39 38 37 39 42 44 41 43 49 48 50 46 48 45 43 38 38 40 40
46 51 52 46 50 53 45 38 15 12 7 7 17 6 4 1 6 19 26 30 34 36 38 42 40 40 34 32 32 36 34 30 33 40 46 47 44 39 47 44 41 38 38 39 40
46 49 46 44 48 45 37 26 17 14 12 9 12 11 12 2 3 13 19 27 31 36 37 37 37 38 33 32 26 24 20 21 23 24 26 38 37 40 40 41 37 33 36 38 39
45 46 41 42 44 39 30 21 16 11 15 20 18 13 4 3 13 6 16 21 26 29 34 33 34 34 29 28 29 30 32 26 25 25 27 33 37 36 33 32 33 32 35 38 40
42 43 39 40 39 33 23 16 13 13 18 18 17 13 9 11 17 15 13 17 20 23 28 30 33 31 31 27 25 26 23 26 27 28 28 28 30 30 31 30 32 33 36 39 39
39 40 36 39 34 27 17 10 6 5 10 15 13 14 15 5 11 14 16 16 20 20 21 27 26 26 26 26 24 27 27 28 27 24 25 24 21 28 29 28 30 33 37 39 41
36 37 33 35 29 22 13 7 3 1 4 10 8 10 13 10 9 8 5 14 20 21 26 28 25 23 24 24 24 24 22 22 21 24 25 27 25 31 27 27 30 34 38 40 42
32 33 31 31 24 19 12 7 2 1 3 5 7 8 7 9 10 7 9 9 7 12 11 12 18 18 19 17 18 18 20 21 22 25 25 23 18 30 24 28 31 33 37 40 41
30 29 28 26 21 17 11 8 3 3 4 5 6 5 6 6 7 10 10 11 12 15 16 16 11 15 17 18 20 20 21 23 23 24 23 25 22 30 28 29 32 34 38 40 41
26 26 25 21 16 15 12 9 7 5 4 5 5 3 3 5 8 10 12 14 14 15 16 16 17 17 16 18 20 21 23 23 23 23 24 24 24 30 28 30 31 33 38 42 43
24 24 21 18 13 14 13 9 6 3 0 1 0 2 6 9 11 14 16 19 17 16 16 17 18 17 19 19 20 21 20 21 22 23 23 24 25 27 31 29 26 25 33 41 42
21 22 17 15 11 11 10 8 5 3 3 4 7 10 12 12 12 11 14 18 20 20 15 14 14 12 11 12 15 20 21 21 20 20 20 22 25 25 28 28 23 21 26 28 28

GFSSW_500_spd_111.txt.gz
Wind_Speed
38 38 39 40 41 41 42 43 46 46 47 48 48 48 48 51 53 53 52 54 52 50 49 49 48 48 47 49 50 48 48 47 40 37 35 35 41 37 39 38 46 38 34 39 26
40 42 42 42 43 45 47 47 48 48 49 51 50 49 49 51 52 55 56 57 57 55 53 52 51 50 51 48 50 54 51 48 43 40 41 37 42 37 43 43 45 41 41 36 32
43 43 45 45 45 47 48 49 50 50 51 53 53 52 52 53 54 54 54 57 60 60 59 59 55 55 54 52 51 52 53 51 45 46 48 40 44 40 48 43 47 47 44 40 36
46 47 47 47 47 48 48 50 51 53 54 54 54 54 49 49 51 55 53 53 55 59 61 63 61 59 57 56 53 54 51 50 49 48 48 41 44 47 47 47 50 49 48 41 38
48 48 47 47 48 49 50 52 53 55 56 57 57 58 56 53 50 50 55 56 54 54 57 62 65 64 63 59 60 55 53 52 52 51 49 42 46 48 48 49 49 49 49 44 40
48 48 49 48 48 49 50 52 53 53 55 57 59 62 63 62 56 53 57 58 58 58 55 57 61 64 65 64 64 62 59 57 55 56 52 47 46 46 45 46 46 45 49 47 42
48 48 47 47 49 49 49 50 50 53 56 58 60 60 62 63 65 64 61 55 59 61 61 59 60 63 66 68 65 65 67 62 59 58 57 52 51 48 45 43 45 44 45 44 43
47 48 48 48 48 47 47 48 50 51 54 57 60 62 65 66 69 68 64 64 61 60 62 63 62 62 62 66 69 68 68 69 62 64 61 62 52 49 47 48 46 42 45 45 46
47 47 47 48 47 46 47 50 53 54 57 62 66 68 70 73 76 77 73 69 69 67 67 67 65 61 62 63 67 71 70 69 69 67 64 64 58 50 49 52 51 47 45 46 47
46 46 46 45 44 46 50 52 56 58 60 69 76 81 82 85 87 87 87 85 82 77 76 71 70 65 63 63 69 68 72 69 68 60 68 67 65 58 51 50 52 44 47 48 49
43 43 43 44 47 50 52 56 58 63 68 78 83 85 86 91 94 92 90 89 88 89 84 74 76 72 58 58 52 61 65 63 67 58 62 71 66 60 55 54 51 50 53 50 51
41 42 45 45 48 52 55 58 62 67 69 82 80 77 68 64 64 54 59 69 71 80 80 77 77 58 59 58 53 61 65 64 64 49 59 71 73 63 59 56 54 56 52 50 49
41 43 44 47 49 52 55 60 65 71 74 70 50 34 38 39 41 40 45 39 47 42 63 69 64 58 61 57 55 56 58 56 63 64 71 69 70 67 66 65 60 57 52 51 50
41 42 46 47 48 53 57 62 67 70 64 44 18 30 32 35 36 32 23 39 32 32 29 42 54 55 56 54 51 51 52 52 60 69 64 62 63 62 64 66 67 64 55 52 50
40 41 44 45 48 52 58 62 64 62 43 27 18 22 23 31 26 18 6 34 31 26 25 31 35 51 56 50 54 48 46 49 54 57 57 59 59 61 45 63 67 62 54 52 51
38 41 42 44 47 53 56 57 58 41 22 18 14 15 21 14 15 7 16 21 35 32 25 21 27 41 45 40 44 44 45 46 49 50 54 51 55 56 54 54 52 54 55 51 50
38 38 39 41 48 52 51 54 45 26 23 13 9 11 18 13 12 9 17 26 25 14 19 22 18 34 34 40 43 42 39 39 41 44 46 37 42 47 25 43 31 46 45 39 40
36 35 36 40 46 47 48 48 34 25 15 12 21 14 4 16 11 2 4 19 26 28 11 25 15 26 33 34 31 30 31 31 30 30 37 28 25 29 40 35 35 35 32 33 37
32 32 35 40 43 42 46 36 26 18 15 17 18 21 9 6 11 12 12 16 22 28 20 13 16 21 25 23 24 26 28 24 23 22 18 23 21 31 31 28 31 26 28 31 34
29 31 34 38 39 40 40 26 19 16 14 16 20 17 11 7 4 19 12 11 11 20 26 19 23 20 25 28 25 20 23 29 27 23 18 13 14 16 24 30 25 23 25 30 34
27 29 32 35 35 38 29 18 13 13 14 15 15 15 16 21 10 15 9 13 10 13 20 27 27 25 29 27 23 27 24 30 24 25 12 9 15 23 24 24 22 24 29 30 33
24 27 29 30 31 33 21 13 11 12 11 10 12 10 11 15 18 16 10 11 12 14 17 17 16 17 15 24 26 21 17 20 23 20 22 17 12 22 22 19 18 23 26 30 29
22 24 26 26 28 26 17 10 10 10 10 9 8 8 9 10 13 12 15 12 4 8 21 20 19 19 20 19 21 25 23 23 24 24 16 22 21 27 25 26 23 23 22 23 26
21 22 23 22 25 19 13 9 9 8 10 10 9 8 9 9 10 12 12 9 12 6 5 28 21 21 19 16 13 18 20 21 22 21 19 12 17 15 24 26 22 21 23 24 29
18 19 19 20 21 15 10 7 8 6 8 9 10 12 11 12 11 15 14 12 9 8 10 5 8 24 16 20 21 17 15 19 21 19 19 18 20 21 20 21 22 21 23 25 31
18 17 15 16 16 12 8 7 8 4 2 0 1 5 9 13 16 17 19 18 17 13 11 12 13 14 15 6 13 15 18 18 18 20 23 28 18 35 25 21 23 23 24 26 31
17 15 13 12 11 10 7 5 4 3 3 4 4 5 9 11 12 14 19 23 23 22 18 15 13 12 13 12 14 13 14 15 15 17 18 16 23 23 20 19 22 23 24 26 31

GFSSW_500_spd_114.txt.gz
Wind_Speed
36 35 35 35 37 38 39 41 41 42 42 42 43 45 45 45 46 48 48 50 54 51 52 51 50 49 49 50 49 47 52 53 50 46 41 38 34 42 45 41 38 38 44 40 42
35 35 36 38 39 40 42 43 42 43 43 44 46 47 46 45 45 47 49 49 52 55 56 57 55 53 55 53 51 53 54 52 47 44 44 42 40 32 49 42 37 43 49 41 39
37 36 37 37 41 45 47 47 46 47 47 47 47 47 48 50 52 52 46 48 50 52 56 59 61 58 60 58 57 55 54 49 47 47 44 46 47 41 51 47 41 43 49 44 41
40 41 43 44 47 46 45 45 46 47 47 48 49 49 51 53 52 54 52 50 50 51 52 56 59 63 62 63 60 61 57 55 51 49 48 49 52 52 57 49 47 43 51 48 43
47 47 48 50 50 47 46 46 46 46 48 49 51 52 51 51 50 48 55 55 55 53 52 54 57 58 61 62 63 64 62 59 57 53 52 51 54 53 54 55 56 49 51 51 40
49 49 50 48 48 47 45 46 46 49 50 51 52 52 53 53 54 55 53 57 57 58 59 56 57 58 57 63 66 64 64 64 62 59 57 55 57 53 51 51 54 54 51 49 49
50 49 49 48 46 46 46 47 48 49 49 50 52 55 56 57 58 59 60 61 60 61 62 60 58 63 59 60 62 63 68 68 68 64 63 61 61 54 50 49 49 50 48 48 50
47 46 46 45 45 46 47 47 48 47 47 53 56 57 58 60 63 65 68 70 69 68 68 66 64 63 64 62 64 65 66 70 62 67 68 64 61 52 51 49 48 48 50 48 48
46 46 45 44 44 46 46 47 47 48 52 55 55 58 60 65 67 70 75 78 76 76 75 76 74 70 67 65 66 66 65 64 66 67 67 67 61 55 53 55 51 54 52 48 49
46 47 45 45 44 44 46 47 50 52 51 55 55 59 67 67 72 78 82 85 86 86 85 83 82 82 76 74 75 71 71 67 66 69 68 67 67 63 57 57 55 57 55 51 48
47 45 42 43 43 41 43 44 45 48 51 57 61 67 73 75 76 79 84 91 89 92 94 81 83 91 86 76 69 60 61 61 60 63 60 49 64 61 58 63 60 58 54 50 51
43 41 41 41 41 41 41 45 48 50 51 57 62 72 77 82 81 62 61 62 66 68 66 66 70 78 78 73 69 62 60 59 52 55 41 52 53 61 50 67 63 58 60 54 49
40 37 37 39 39 39 42 47 49 52 56 62 70 74 68 63 50 45 47 44 54 52 44 44 47 53 69 70 65 61 61 57 51 48 51 43 53 58 62 61 63 62 60 57 54
39 32 35 37 38 39 43 47 49 51 57 67 64 61 43 38 32 32 38 43 17 7 1 21 15 37 56 67 48 56 52 51 45 50 52 47 53 60 60 59 59 59 64 62 61
32 32 33 35 37 39 42 45 48 51 60 55 58 42 25 29 25 24 29 6 3 5 16 18 23 27 28 52 45 43 36 36 44 51 55 55 56 48 54 55 57 59 55 53 61
28 31 32 34 36 37 40 43 46 52 52 45 39 19 18 26 31 21 18 10 18 14 20 11 13 16 16 20 32 29 36 38 45 50 53 44 47 49 52 54 52 49 49 48 60
27 29 31 33 34 37 40 42 46 51 49 39 27 18 21 19 24 16 13 4 14 5 3 9 17 18 32 24 36 39 42 43 44 46 39 40 39 37 36 30 34 33 24 36 54
28 28 30 29 31 35 38 42 46 46 38 30 21 18 16 12 19 13 6 5 8 11 4 12 8 24 21 33 36 42 39 40 42 41 36 30 32 30 27 22 21 30 45 47 48
26 27 26 27 30 33 37 41 43 40 32 22 15 19 19 17 13 9 5 0 13 12 4 7 6 14 22 25 26 32 31 23 24 24 20 23 22 22 21 26 35 38 40 31 36
24 23 23 24 28 31 34 39 38 29 21 16 15 17 20 20 9 7 10 2 5 12 15 6 1 9 25 19 20 18 18 28 24 16 15 13 15 18 23 32 32 29 32 38 37
24 21 21 22 25 29 32 36 32 20 17 14 11 13 15 17 21 18 12 5 2 8 16 22 3 18 11 21 21 20 22 25 22 22 12 12 13 18 16 31 29 33 39 33 35
21 19 19 21 23 26 30 31 24 15 14 14 10 8 10 12 17 21 18 11 6 8 12 18 18 10 13 9 16 20 21 25 25 26 21 14 15 17 16 22 30 40 30 32 25
19 17 17 19 20 22 27 24 14 13 14 14 11 6 7 10 12 13 13 22 12 9 12 14 15 20 10 14 19 22 22 20 23 19 21 24 20 23 21 30 26 18 20 20 27
19 17 15 16 15 18 22 16 11 12 14 14 13 9 8 11 13 15 11 11 17 9 7 14 14 15 9 13 20 21 19 21 24 27 17 13 26 22 21 26 23 20 21 22 22
18 16 14 12 11 14 16 11 10 13 13 12 11 10 12 13 13 19 22 15 8 18 20 12 20 10 12 10 13 15 24 25 24 20 26 17 14 18 25 29 28 12 15 20 22
20 17 13 9 7 9 9 9 8 7 7 9 11 13 15 16 19 21 22 24 15 14 21 22 10 11 5 11 3 11 18 19 14 17 21 24 24 21 17 30 27 18 20 20 22
19 18 12 9 7 4 4 4 5 6 7 9 9 9 12 14 16 18 21 26 26 17 16 16 13 12 10 12 6 12 7 7 9 9 10 26 20 24 35 16 19 23 20 21 21